Latitude: N 50° 09' 49" Longitude: W 05° 11' 53" Elevation: 168m ASL

There are 21 visitors online

Adverts

<- Previous Day | Today | Next Day ->

All Data for 19 October 2018

Time
A - D
Temp
A - D
Dew Point
A - D
Humidity
A - D
Pressure
A - D
Wind
A - D
Wind Dir Gust
A - D
Rain Rate
A - D
Rain Total
00:00 10.8 9.2 90 1025.9 2.2 NE 3.1 0.0 0.0
00:01 10.8 9.1 89 1026.0 3.1 NNE 3.1 0.0 0.0
00:02 10.7 9.1 90 1025.9 3.1 NE 3.1 0.0 0.0
00:03 10.7 9.1 90 1026.0 3.1 NE 3.1 0.0 0.0
00:04 10.7 9.1 90 1026.0 4.5 N 4.5 0.0 0.0
00:05 10.7 9.1 90 1026.1 3.8 NE 4.5 0.0 0.0
00:06 10.7 9.1 90 1026.1 4.5 NE 4.5 0.0 0.0
00:07 10.7 9.1 90 1026.1 4.5 N 4.5 0.0 0.0
00:08 10.7 9.1 90 1026.1 3.8 N 4.5 0.0 0.0
00:09 10.6 9.0 90 1026.2 4.5 N 4.5 0.0 0.0
00:10 10.6 9.0 90 1026.2 4.5 NE 4.5 0.0 0.0
00:11 10.6 9.0 90 1026.1 3.8 NE 4.5 0.0 0.0
00:12 10.6 9.0 90 1026.2 3.8 N 4.5 0.0 0.0
00:13 10.6 9.0 90 1026.2 3.8 NW 4.5 0.0 0.0
00:14 10.6 9.0 90 1026.2 4.5 NE 4.5 0.0 0.0
00:15 10.6 9.0 90 1026.0 3.8 NE 4.5 0.0 0.0
00:16 10.6 9.0 90 1026.1 3.1 N 4.5 0.0 0.0
00:17 10.6 9.0 90 1026.0 3.1 NE 4.5 0.0 0.0
00:18 10.6 9.0 90 1025.9 3.8 NE 4.5 0.0 0.0
00:19 10.6 9.0 90 1026.0 3.8 NE 4.5 0.0 0.0
00:20 10.6 9.0 90 1026.0 3.8 ENE 4.5 0.0 0.0
00:21 10.6 9.0 90 1026.1 3.1 NE 4.5 0.0 0.0
00:22 10.6 9.0 90 1026.0 3.1 NE 4.5 0.0 0.0
00:23 10.6 9.0 90 1025.9 2.2 N 4.5 0.0 0.0
00:24 10.6 9.0 90 1026.1 2.2 NE 3.8 0.0 0.0
00:25 10.6 9.0 90 1025.9 2.2 NE 3.8 0.0 0.0
00:26 10.6 9.0 90 1025.9 3.1 NNE 3.8 0.0 0.0
00:27 10.6 9.0 90 1026.0 2.2 N 3.8 0.0 0.0
00:28 10.5 9.1 91 1026.0 2.2 NE 3.8 0.0 0.0
00:30 10.5 8.9 90 1026.0 3.1 N 3.8 0.0 0.0
00:31 10.5 8.9 90 1026.0 3.1 NE 3.1 0.0 0.0
00:32 10.5 8.9 90 1026.0 2.2 NE 3.1 0.0 0.0
00:33 10.5 8.9 90 1026.0 3.1 NE 3.1 0.0 0.0
00:34 10.5 8.9 90 1025.8 3.1 NE 3.1 0.0 0.0
00:35 10.5 9.1 91 1026.0 2.2 N 3.1 0.0 0.0
00:36 10.5 9.1 91 1025.9 3.1 NE 3.1 0.0 0.0
00:37 10.5 9.1 91 1025.9 2.2 NE 3.1 0.0 0.0
00:38 10.5 9.1 91 1025.9 2.2 NE 3.1 0.0 0.0
00:39 10.5 9.1 91 1025.9 1.6 NE 3.1 0.0 0.0
00:40 10.5 9.1 91 1025.8 2.2 NE 3.1 0.0 0.0
00:41 10.5 9.1 91 1025.8 3.8 N 3.8 0.0 0.0
00:42 10.5 9.1 91 1025.9 2.2 NE 3.8 0.0 0.0
00:43 10.5 9.1 91 1025.9 2.2 NE 3.8 0.0 0.0
00:44 10.5 9.1 91 1025.9 2.2 NE 3.8 0.0 0.0
00:45 10.5 9.1 91 1025.8 0.0 N 3.8 0.0 0.0
00:46 10.5 9.1 91 1025.9 0.0 N 3.8 0.0 0.0
00:47 10.5 9.1 91 1025.9 2.2 N 3.8 0.0 0.0
00:48 10.5 9.1 91 1025.9 3.1 NE 3.8 0.0 0.0
00:50 10.5 9.1 91 1025.7 2.2 NE 3.8 0.0 0.0
00:51 10.6 9.2 91 1025.9 3.1 N 3.8 0.0 0.0
00:52 10.6 9.2 91 1025.8 1.6 N 3.1 0.0 0.0
00:53 10.6 9.2 91 1025.8 1.6 N 3.1 0.0 0.0
00:54 10.6 9.2 91 1025.7 1.6 N 3.1 0.0 0.0
00:55 10.6 9.2 91 1025.6 2.2 NW 3.1 0.0 0.0
00:56 10.6 9.2 91 1025.8 1.6 NE 3.1 0.0 0.0
00:57 10.6 9.2 91 1025.7 2.2 NE 3.1 0.0 0.0
00:58 10.6 9.2 91 1025.7 2.2 NE 3.1 0.0 0.0
00:59 10.6 9.2 91 1025.8 3.1 N 3.1 0.0 0.0
01:00 10.6 9.2 91 1025.7 3.1 NNE 3.1 0.0 0.0
01:01 10.6 9.2 91 1025.7 3.1 NNE 3.1 0.0 0.0
01:02 10.6 9.2 91 1025.7 2.2 ENE 3.1 0.0 0.0
01:03 10.6 9.2 91 1025.6 2.2 NE 3.1 0.0 0.0
01:04 10.6 9.2 91 1025.6 2.2 NE 3.1 0.0 0.0
01:05 10.6 9.2 91 1025.6 2.2 N 3.1 0.0 0.0
01:06 10.6 9.2 91 1025.7 2.2 N 3.1 0.0 0.0
01:07 10.6 9.2 91 1025.7 2.2 N 3.1 0.0 0.0
01:08 10.6 9.4 92 1025.5 2.2 NE 3.1 0.0 0.0
01:09 10.6 9.4 92 1025.7 2.2 NE 3.1 0.0 0.0
01:10 10.6 9.4 92 1025.8 2.2 NE 3.1 0.0 0.0
01:11 10.6 9.2 91 1025.8 3.1 N 3.1 0.0 0.0
01:12 10.6 9.2 91 1025.8 3.1 N 3.1 0.0 0.0
01:13 10.7 9.5 92 1025.9 2.2 NE 3.1 0.0 0.0
01:14 10.7 9.5 92 1025.6 3.1 NE 3.1 0.0 0.0
01:15 10.7 9.5 92 1025.8 2.2 N 3.1 0.0 0.0
01:16 10.7 9.5 92 1025.8 2.2 N 3.1 0.0 0.0
01:18 10.7 9.5 92 1025.8 1.6 N 3.1 0.0 0.0
01:19 10.7 9.5 92 1025.8 1.6 NW 3.1 0.0 0.0
01:20 10.7 9.5 92 1025.9 2.2 NE 3.1 0.0 0.0
01:21 10.7 9.5 92 1025.9 3.1 NE 3.1 0.0 0.0
01:22 10.7 9.5 92 1025.7 0.7 N 3.1 0.0 0.0
01:23 10.7 9.5 92 1025.9 0.0 NW 3.1 0.0 0.0
01:24 10.7 9.5 92 1025.9 0.0 N 3.1 0.0 0.0
01:25 10.7 9.5 92 1025.8 0.0 NE 3.1 0.0 0.0
01:26 10.7 9.5 92 1025.8 3.1 N 3.1 0.0 0.0
01:27 10.7 9.5 92 1025.8 3.8 NE 3.8 0.0 0.0
01:28 10.7 9.5 92 1025.7 2.2 NE 3.8 0.0 0.0
01:29 10.7 9.5 92 1025.8 2.2 NE 3.8 0.0 0.0
01:30 10.7 9.5 92 1025.8 2.2 NE 3.8 0.0 0.0
01:31 10.7 9.5 92 1025.8 2.2 NE 3.8 0.0 0.0
01:32 10.7 9.5 92 1025.8 1.6 N 3.8 0.0 0.0
01:33 10.7 9.5 92 1025.6 1.6 N 3.8 0.0 0.0
01:34 10.7 9.5 92 1025.7 1.6 NE 3.8 0.0 0.0
01:35 10.7 9.5 92 1025.6 2.2 N 3.8 0.0 0.0
01:37 10.7 9.5 92 1025.7 3.1 N 3.8 0.0 0.0
01:38 10.7 9.5 92 1025.6 3.1 NE 3.1 0.0 0.0
01:39 10.7 9.5 92 1025.7 3.1 N 3.1 0.0 0.0
01:40 10.7 9.5 92 1025.7 3.8 N 3.8 0.0 0.0
01:41 10.7 9.5 92 1025.6 2.2 NE 3.8 0.0 0.0
01:42 10.7 9.5 92 1025.5 2.2 NE 3.8 0.0 0.0
01:43 10.7 9.5 92 1025.6 1.6 NNE 3.8 0.0 0.0
01:44 10.7 9.5 92 1025.6 3.1 NE 3.8 0.0 0.0
01:45 10.8 9.6 92 1025.6 2.2 NE 3.8 0.0 0.0
01:46 10.8 9.6 92 1025.5 3.1 NE 3.8 0.0 0.0
01:47 10.8 9.6 92 1025.6 2.2 N 3.8 0.0 0.0
01:48 10.8 9.6 92 1025.6 2.2 N 3.8 0.0 0.0
01:49 10.8 9.6 92 1025.7 2.2 N 3.8 0.0 0.0
01:50 10.8 9.6 92 1025.5 1.6 N 3.1 0.0 0.0
01:51 10.8 9.6 92 1025.5 1.6 N 3.1 0.0 0.0
01:52 10.8 9.6 92 1025.6 2.2 N 3.1 0.0 0.0
01:53 10.8 9.6 92 1025.6 0.0 N 3.1 0.0 0.0
01:54 10.8 9.6 92 1025.5 0.0 NE 3.1 0.0 0.0
01:56 10.8 9.6 92 1025.7 0.0 NE 3.1 0.0 0.0
01:57 10.9 9.7 92 1025.6 0.0 NE 3.1 0.0 0.0
01:58 10.9 9.7 92 1025.5 0.0 N 2.2 0.0 0.0
01:59 10.9 9.7 92 1025.4 0.0 N 2.2 0.0 0.0
02:00 10.9 9.7 92 1025.3 0.0 NE 2.2 0.0 0.0
02:01 10.9 9.7 92 1025.3 0.0 NE 2.2 0.0 0.0
02:02 10.9 9.7 92 1025.3 0.0 NE 1.6 0.0 0.0
02:03 10.9 9.7 92 1025.3 0.0 NE 0.0 0.0 0.0
02:04 10.9 9.7 92 1025.2 0.0 NE 0.0 0.0 0.0
02:05 10.9 9.7 92 1025.3 0.0 NE 0.0 0.0 0.0
02:06 10.9 9.8 93 1025.2 0.7 N 0.7 0.0 0.0
02:07 10.9 9.7 92 1025.2 0.0 N 0.7 0.0 0.0
02:08 10.9 9.7 92 1025.2 0.7 NW 0.7 0.0 0.0
02:09 10.9 9.7 92 1025.3 2.2 N 2.2 0.0 0.0
02:10 10.9 9.7 92 1025.3 0.7 N 2.2 0.0 0.0
02:11 10.9 9.8 93 1025.2 1.6 W 2.2 0.0 0.0
02:12 10.9 9.8 93 1025.1 1.6 NE 2.2 0.0 0.0
02:13 11.0 9.8 92 1025.2 3.1 NW 3.1 0.0 0.0
02:15 10.9 9.8 93 1025.3 2.2 N 3.1 0.0 0.0
02:16 11.0 9.9 93 1025.3 1.6 N 3.1 0.0 0.0
02:17 11.0 9.9 93 1025.1 2.2 N 3.1 0.0 0.0
02:18 11.0 9.9 93 1025.1 2.2 NE 3.1 0.0 0.0
02:19 11.0 9.9 93 1025.3 1.6 NNE 3.1 0.0 0.0
02:20 11.0 9.9 93 1025.3 1.6 NW 3.1 0.0 0.0
02:21 11.0 9.9 93 1025.2 3.8 N 3.8 0.0 0.0
02:22 11.0 9.9 93 1025.3 1.6 NE 3.8 0.0 0.0
02:23 11.0 9.9 93 1025.0 0.0 N 3.8 0.0 0.0
02:24 11.0 9.9 93 1024.9 0.0 N 3.8 0.0 0.0
02:25 11.0 9.9 93 1025.1 0.0 NE 3.8 0.0 0.0
02:26 11.0 9.9 93 1025.1 0.0 NE 3.8 0.0 0.0
02:27 11.0 9.9 93 1025.1 0.0 NE 3.8 0.0 0.0
02:28 11.0 9.9 93 1025.2 0.0 NE 3.8 0.0 0.0
02:29 11.0 9.9 93 1025.2 0.0 N 3.8 0.0 0.0
02:30 11.0 9.9 93 1024.8 0.0 NE 3.8 0.0 0.0
02:31 11.1 10.0 93 1025.1 0.0 ENE 3.8 0.0 0.0
02:32 11.1 10.0 93 1025.1 0.0 NE 2.2 0.0 0.0
02:34 11.1 10.0 93 1025.0 5.4 NE 5.4 0.0 0.0
02:35 11.1 10.0 93 1025.1 3.1 N 5.4 0.0 0.0
02:36 11.1 10.0 93 1025.0 2.2 N 5.4 0.0 0.0
02:37 11.1 10.0 93 1025.2 3.1 N 5.4 0.0 0.0
02:38 11.2 10.1 93 1025.1 3.1 NE 5.4 0.0 0.0
02:39 11.2 10.1 93 1025.2 3.1 E 5.4 0.0 0.0
02:40 11.2 10.1 93 1025.2 3.8 NE 5.4 0.0 0.0
02:41 11.2 10.1 93 1025.2 3.1 NE 5.4 0.0 0.0
02:42 11.2 10.1 93 1025.1 3.1 NE 5.4 0.0 0.0
02:43 11.2 10.1 93 1025.2 2.2 N 5.4 0.0 0.0
02:44 11.3 10.2 93 1025.2 3.8 NE 3.8 0.0 0.0
02:45 11.3 10.2 93 1025.0 5.4 NE 5.4 0.0 0.0
02:46 11.3 10.2 93 1025.2 3.1 NE 5.4 0.0 0.0
02:47 11.3 10.2 93 1025.0 3.1 NE 5.4 0.0 0.0
02:48 11.3 10.2 93 1025.0 2.2 NE 5.4 0.0 0.0
02:49 11.4 10.3 93 1025.1 3.1 NE 5.4 0.0 0.0
02:50 11.4 10.3 93 1025.0 4.5 NE 5.4 0.0 0.0
02:51 11.4 10.3 93 1025.1 3.8 NE 5.4 0.0 0.0
02:53 11.4 10.5 94 1025.1 2.2 NE 5.4 0.0 0.0
02:54 11.4 10.3 93 1025.1 4.5 NNE 5.4 0.0 0.0
02:55 11.5 10.6 94 1025.1 4.5 NE 5.4 0.0 0.0
02:56 11.5 10.6 94 1024.9 3.1 NE 4.5 0.0 0.0
02:57 11.5 10.6 94 1025.0 3.8 NE 4.5 0.0 0.0
02:58 11.5 10.6 94 1025.1 4.5 NE 4.5 0.0 0.0
02:59 11.5 10.6 94 1025.0 4.5 N 4.5 0.0 0.0
03:00 11.6 10.7 94 1025.0 3.1 N 4.5 0.0 0.0
03:01 11.6 10.7 94 1025.0 3.1 N 4.5 0.0 0.0
03:02 11.6 10.7 94 1025.1 3.8 N 4.5 0.0 0.0
03:03 11.6 10.7 94 1025.1 4.5 ENE 4.5 0.0 0.0
03:04 11.6 10.7 94 1025.2 3.1 N 4.5 0.0 0.0
03:05 11.6 10.7 94 1025.1 2.2 NW 4.5 0.0 0.0
03:06 11.6 10.7 94 1025.0 3.8 NE 4.5 0.0 0.0
03:07 11.6 10.7 94 1025.1 3.8 NE 4.5 0.0 0.0
03:08 11.6 10.7 94 1024.8 3.1 NE 4.5 0.0 0.0
03:09 11.7 10.8 94 1025.2 2.2 N 4.5 0.0 0.0
03:10 11.6 10.7 94 1025.2 1.6 N 4.5 0.0 0.0
03:11 11.7 10.8 94 1025.1 1.6 NE 4.5 0.0 0.0
03:12 11.7 10.8 94 1025.2 1.6 N 4.5 0.0 0.0
03:14 11.7 10.8 94 1025.0 2.2 NW 3.8 0.0 0.0
03:15 11.7 10.8 94 1025.1 2.2 N 3.8 0.0 0.0
03:16 11.7 10.8 94 1025.2 2.2 N 3.8 0.0 0.0
03:17 11.7 10.8 94 1025.3 0.7 NW 3.1 0.0 0.0
03:18 11.7 10.8 94 1025.2 2.2 NW 3.1 0.0 0.0
03:19 11.7 10.8 94 1025.2 2.2 NE 3.1 0.0 0.0
03:20 11.7 10.8 94 1025.4 1.6 N 3.1 0.0 0.0
03:21 11.7 10.8 94 1025.3 0.7 N 3.1 0.0 0.0
03:22 11.6 10.7 94 1025.3 0.0 NW 3.1 0.0 0.0
03:23 11.7 10.8 94 1025.3 0.7 N 2.2 0.0 0.0
03:24 11.6 10.7 94 1025.3 0.0 N 2.2 0.0 0.0
03:25 11.6 10.7 94 1025.3 0.0 N 2.2 0.0 0.0
03:26 11.6 10.7 94 1025.3 0.0 N 2.2 0.0 0.0
03:27 11.6 10.7 94 1025.3 2.2 N 2.2 0.0 0.0
03:28 11.6 10.7 94 1025.3 2.2 NE 2.2 0.0 0.0
03:29 11.6 10.7 94 1025.3 1.6 N 2.2 0.0 0.0
03:30 11.6 10.7 94 1025.4 2.2 N 2.2 0.0 0.0
03:31 11.6 10.7 94 1025.4 2.2 N 2.2 0.0 0.0
03:33 11.6 10.7 94 1025.5 1.6 NW 2.2 0.0 0.0
03:34 11.6 10.7 94 1025.3 1.6 NW 2.2 0.0 0.0
03:35 11.6 10.7 94 1025.4 1.6 N 2.2 0.0 0.0
03:36 11.6 10.7 94 1025.5 2.2 N 2.2 0.0 0.0
03:37 11.6 10.7 94 1025.5 3.1 N 3.1 0.0 0.0
03:38 11.6 10.7 94 1025.4 2.2 N 3.1 0.0 0.0
03:39 11.6 10.7 94 1025.3 2.2 N 3.1 0.0 0.0
03:40 11.6 10.7 94 1025.3 2.2 N 3.1 0.0 0.0
03:41 11.6 10.7 94 1025.3 1.6 N 3.1 0.0 0.0
03:42 11.6 10.7 94 1025.5 3.1 N 3.1 0.0 0.0
03:43 11.6 10.7 94 1025.5 1.6 N 3.1 0.0 0.0
03:44 11.6 10.7 94 1025.5 1.6 N 3.1 0.0 0.0
03:45 11.6 10.7 94 1025.4 0.7 N 3.1 0.0 0.0
03:46 11.6 10.7 94 1025.4 0.0 NW 3.1 0.0 0.0
03:47 11.6 10.7 94 1025.5 0.0 N 3.1 0.0 0.0
03:48 11.6 10.7 94 1025.4 0.0 N 3.1 0.0 0.0
03:49 11.6 10.7 94 1025.5 0.0 N 3.1 0.0 0.0
03:50 11.6 10.7 94 1025.4 0.0 N 3.1 0.0 0.0
03:51 11.6 10.7 94 1025.4 0.0 NW 3.1 0.0 0.0
03:53 11.6 10.7 94 1025.5 0.0 N 1.6 0.0 0.0
03:54 11.6 10.7 94 1025.4 1.6 NE 1.6 0.0 0.0
03:55 11.6 10.7 94 1025.4 2.2 NNE 2.2 0.0 0.0
03:56 11.6 10.7 94 1025.4 3.1 NE 3.1 0.0 0.0
03:57 11.6 10.7 94 1025.2 3.1 N 3.1 0.0 0.0
03:58 11.6 10.7 94 1025.4 3.1 N 3.8 0.0 0.0
03:59 11.6 10.7 94 1025.3 3.8 NE 3.8 0.0 0.0
04:00 11.6 10.7 94 1025.2 3.1 NE 3.8 0.0 0.0
04:01 11.6 10.7 94 1025.2 3.1 NE 3.8 0.0 0.0
04:02 11.6 10.7 94 1025.3 3.1 NE 3.8 0.0 0.0
04:03 11.6 10.7 94 1025.2 3.1 NE 3.8 0.0 0.0
04:04 11.6 10.7 94 1025.2 3.1 NE 3.8 0.0 0.0
04:05 11.6 10.7 94 1025.4 3.1 NE 3.8 0.0 0.0
04:06 11.6 10.7 94 1025.3 2.2 NE 3.8 0.0 0.0
04:07 11.6 10.7 94 1025.4 3.1 N 3.8 0.0 0.0
04:08 11.6 10.7 94 1025.3 3.1 NE 3.8 0.0 0.0
04:09 11.6 10.7 94 1025.3 3.1 NNE 3.8 0.0 0.0
04:10 11.6 10.7 94 1025.3 2.2 N 3.1 0.0 0.0
04:12 11.6 10.7 94 1025.2 3.1 NE 3.1 0.0 0.0
04:13 11.6 10.7 94 1025.2 1.6 NE 3.1 0.0 0.0
04:14 11.6 10.7 94 1025.2 1.6 NE 3.1 0.0 0.0
04:15 11.6 10.7 94 1025.3 2.2 NE 3.1 0.0 0.0
04:16 11.6 10.7 94 1025.3 2.2 NNE 3.1 0.0 0.0
04:17 11.6 10.7 94 1025.2 1.6 NW 3.1 0.0 0.0
04:18 11.6 10.7 94 1025.4 2.2 N 3.1 0.0 0.0
04:19 11.6 10.7 94 1025.3 2.2 N 3.1 0.0 0.0
04:20 11.6 10.7 94 1025.2 3.1 N 3.1 0.0 0.0
04:21 11.6 10.7 94 1025.3 2.2 N 3.1 0.0 0.0
04:22 11.6 10.7 94 1025.4 2.2 N 3.1 0.0 0.0
04:23 11.6 10.7 94 1025.4 2.2 N 3.1 0.0 0.0
04:24 11.6 10.7 94 1025.3 2.2 NE 3.1 0.0 0.0
04:25 11.7 10.8 94 1025.1 2.2 N 3.1 0.0 0.0
04:26 11.7 10.8 94 1025.1 2.2 NE 3.1 0.0 0.0
04:27 11.7 10.8 94 1025.2 3.1 N 3.1 0.0 0.0
04:28 11.7 10.8 94 1025.0 2.2 NE 3.1 0.0 0.0
04:29 11.7 10.8 94 1025.2 3.1 N 3.8 0.0 0.0
04:31 11.7 10.8 94 1025.2 1.6 N 3.8 0.0 0.0
04:32 11.7 10.8 94 1025.2 1.6 N 3.8 0.0 0.0
04:33 11.7 10.8 94 1025.3 2.2 NE 3.8 0.0 0.0
04:34 11.7 10.8 94 1025.3 2.2 NNE 3.8 0.0 0.0
04:35 11.7 10.8 94 1025.3 2.2 NNE 3.8 0.0 0.0
04:36 11.7 10.8 94 1025.3 1.6 N 3.8 0.0 0.0
04:37 11.7 10.9 95 1025.2 0.0 N 3.8 0.0 0.0
04:38 11.7 10.8 94 1025.3 0.0 NE 3.8 0.0 0.0
04:39 11.7 10.8 94 1025.3 0.0 N 3.1 0.0 0.0
04:40 11.7 10.8 94 1025.3 3.1 NE 3.1 0.0 0.0
04:43 11.7 10.9 95 1025.1 1.6 N 3.1 0.0 0.0
04:44 11.8 11.0 95 1025.3 2.2 N 3.1 0.0 0.0
04:45 11.7 10.8 94 1025.4 3.1 N 3.1 0.0 0.0
04:46 11.8 11.0 95 1025.2 2.2 N 3.1 0.0 0.0
04:47 11.8 11.0 95 1025.3 3.1 NE 3.1 0.0 0.0
04:48 11.8 11.0 95 1025.3 2.2 N 3.1 0.0 0.0
04:49 11.8 11.0 95 1025.3 3.8 N 3.8 0.0 0.0
04:50 11.8 11.0 95 1025.3 2.2 N 3.8 0.0 0.0
04:51 11.7 10.9 95 1025.4 1.6 N 3.8 0.0 0.0
04:52 11.7 10.9 95 1025.3 2.2 N 3.8 0.0 0.0
04:53 11.8 11.0 95 1025.3 2.2 N 3.8 0.0 0.0
04:54 11.7 10.8 94 1025.3 1.6 N 3.8 0.0 0.0
04:55 11.8 11.0 95 1025.3 1.6 N 3.8 0.0 0.0
04:56 11.7 10.9 95 1025.3 0.0 N 3.8 0.0 0.0
04:57 11.7 10.8 94 1025.4 0.0 NW 3.8 0.0 0.0
04:58 11.7 10.8 94 1025.3 0.0 NNE 3.8 0.0 0.0
04:59 11.7 10.8 94 1025.3 0.0 NE 3.8 0.0 0.0
05:00 11.7 10.8 94 1025.3 0.0 N 2.2 0.0 0.0
05:01 11.7 10.8 94 1025.2 0.0 NE 2.2 0.0 0.0
05:02 11.7 10.8 94 1025.3 0.0 NE 2.2 0.0 0.0
05:04 11.7 10.9 95 1025.2 3.8 N 3.8 0.0 0.0
05:05 11.7 10.8 94 1025.2 3.8 NE 3.8 0.0 0.0
05:06 11.7 10.8 94 1025.1 3.1 NE 5.4 0.0 0.0
05:07 11.7 10.8 94 1025.0 3.1 NW 5.4 0.0 0.0
05:08 11.7 10.9 95 1025.3 2.2 N 5.4 0.0 0.0
05:09 11.7 10.8 94 1025.2 2.2 NE 5.4 0.0 0.0
05:10 11.7 10.9 95 1025.2 2.2 N 5.4 0.0 0.0
05:11 11.7 10.8 94 1025.1 1.6 WNW 5.4 0.0 0.0
05:12 11.7 10.8 94 1025.3 0.7 NW 5.4 0.0 0.0
05:13 11.7 10.9 95 1025.3 0.7 NW 5.4 0.0 0.0
05:14 11.7 10.9 95 1025.4 0.0 N 5.4 0.0 0.0
05:15 11.7 10.9 95 1025.3 0.0 NW 5.4 0.0 0.0
05:16 11.7 10.9 95 1025.3 0.0 NNE 3.1 0.0 0.0
05:17 11.7 10.9 95 1025.3 0.7 N 3.1 0.0 0.0
05:18 11.7 10.9 95 1025.1 0.0 NE 2.2 0.0 0.0
05:19 11.7 10.9 95 1025.2 0.0 N 2.2 0.0 0.0
05:20 11.7 10.9 95 1025.1 0.0 NE 2.2 0.0 0.0
05:21 11.7 10.9 95 1025.1 0.0 N 1.6 0.0 0.0
05:23 11.7 10.9 95 1025.3 0.0 NE 0.7 0.0 0.0
05:24 11.7 10.9 95 1025.2 2.2 N 2.2 0.0 0.0
05:25 11.7 10.9 95 1025.2 2.2 N 2.2 0.0 0.0
05:26 11.7 10.9 95 1025.3 3.1 NE 3.1 0.0 0.0
05:27 11.7 10.9 95 1025.2 2.2 NNE 3.1 0.0 0.0
05:28 11.7 10.9 95 1025.3 1.6 NNE 3.1 0.0 0.0
05:29 11.7 10.9 95 1025.3 3.1 E 3.1 0.0 0.0
05:30 11.7 10.9 95 1025.3 2.2 NE 3.1 0.0 0.0
05:31 11.7 10.9 95 1025.3 3.1 NE 3.1 0.0 0.0
05:32 11.7 10.9 95 1025.1 2.2 NE 3.1 0.0 0.0
05:33 11.7 10.9 95 1025.2 2.2 NE 3.1 0.0 0.0
05:34 11.7 10.9 95 1025.1 1.6 NE 3.1 0.0 0.0
05:35 11.7 10.9 95 1025.2 1.6 NE 3.1 0.0 0.0
05:36 11.7 10.9 95 1025.3 2.2 N 3.1 0.0 0.0
05:37 11.7 10.9 95 1025.2 1.6 N 3.1 0.0 0.0
05:38 11.7 10.9 95 1025.3 0.7 N 3.1 0.0 0.0
05:39 11.7 10.9 95 1025.2 0.0 N 3.1 0.0 0.0
05:40 11.7 10.9 95 1025.2 0.0 N 3.1 0.0 0.0
05:41 11.7 10.9 95 1025.2 0.0 NE 3.1 0.0 0.0
05:43 11.8 11.0 95 1025.2 0.0 N 2.2 0.0 0.0
05:44 11.8 11.0 95 1025.2 0.0 N 2.2 0.0 0.0
05:45 11.8 11.0 95 1025.0 0.0 N 2.2 0.0 0.0
05:46 11.8 11.0 95 1025.2 0.0 N 2.2 0.0 0.0
05:47 11.8 11.0 95 1025.3 0.0 N 0.7 0.0 0.0
05:48 11.8 11.0 95 1025.2 0.0 N 0.0 0.0 0.0
05:49 11.8 11.0 95 1025.2 0.0 N 0.0 0.0 0.0
05:50 11.8 11.0 95 1025.2 0.0 S 0.0 0.0 0.0
05:51 11.8 11.0 95 1025.1 0.0 N 0.0 0.0 0.0
05:52 11.8 11.0 95 1025.2 3.1 N 3.1 0.0 0.0
05:53 11.8 11.0 95 1025.2 1.6 N 3.1 0.0 0.0
05:54 11.8 11.0 95 1025.2 1.6 N 3.1 0.0 0.0
05:55 11.9 11.1 95 1025.2 3.1 N 3.1 0.0 0.0
05:56 11.9 11.1 95 1025.1 1.6 SW 3.1 0.0 0.0
05:57 11.9 11.1 95 1025.1 0.0 N 3.1 0.0 0.0
05:58 11.9 11.1 95 1025.0 0.0 N 3.1 0.0 0.0
05:59 11.9 11.1 95 1025.0 3.1 E 3.1 0.0 0.0
06:00 11.9 11.1 95 1025.1 3.1 NW 3.1 0.0 0.0
06:02 12.0 11.2 95 1025.1 0.7 N 3.1 0.0 0.0
06:03 12.0 11.2 95 1025.0 0.7 N 3.1 0.0 0.0
06:04 12.0 11.2 95 1025.0 0.7 N 3.1 0.0 0.0
06:05 12.0 11.2 95 1025.2 1.6 N 3.1 0.0 0.0
06:06 12.0 11.2 95 1025.1 1.6 NE 3.1 0.0 0.0
06:07 12.0 11.2 95 1025.0 3.1 NE 3.1 0.0 0.0
06:08 12.0 11.2 95 1025.1 2.2 N 3.1 0.0 0.0
06:09 12.1 11.3 95 1025.0 3.1 E 3.1 0.0 0.0
06:10 12.0 11.2 95 1025.2 3.8 NE 3.8 0.0 0.0
06:11 12.1 11.5 96 1025.2 3.1 N 3.8 0.0 0.0
06:12 12.1 11.5 96 1025.1 4.5 NE 4.5 0.0 0.0
06:13 12.1 11.5 96 1025.1 2.2 N 4.5 0.0 0.0
06:14 12.1 11.5 96 1025.1 3.1 N 4.5 0.0 0.0
06:15 12.1 11.5 96 1025.2 2.2 NW 4.5 0.0 0.0
06:16 12.1 11.3 95 1025.0 2.2 NW 4.5 0.0 0.0
06:17 12.1 11.3 95 1025.1 3.1 NNE 4.5 0.0 0.0
06:18 12.1 11.5 96 1025.1 2.2 N 4.5 0.0 0.0
06:19 12.1 11.3 95 1025.1 3.1 NW 4.5 0.0 0.0
06:21 12.1 11.5 96 1025.0 1.6 N 4.5 0.0 0.0
06:22 12.1 11.5 96 1025.2 3.1 N 4.5 0.0 0.0
06:23 12.1 11.5 96 1025.1 2.2 N 3.1 0.0 0.0
06:24 12.1 11.5 96 1025.1 2.2 N 3.1 0.0 0.0
06:25 12.1 11.5 96 1025.3 2.2 NW 3.1 0.0 0.0
06:26 12.1 11.5 96 1025.2 2.2 N 3.1 0.0 0.0
06:27 12.1 11.5 96 1025.1 2.2 NE 3.1 0.0 0.0
06:28 12.1 11.5 96 1025.2 1.6 NNE 3.1 0.0 0.0
06:29 12.2 11.6 96 1025.1 0.0 NE 3.1 0.0 0.0
06:30 12.1 11.5 96 1025.1 0.0 NNE 3.1 0.0 0.0
06:31 12.1 11.5 96 1025.1 3.8 NE 3.8 0.0 0.0
06:32 12.1 11.5 96 1025.1 3.8 NE 3.8 0.0 0.0
06:33 12.2 11.6 96 1025.1 3.1 E 3.8 0.0 0.0
06:34 12.2 11.6 96 1025.2 3.8 NE 3.8 0.0 0.0
06:35 12.2 11.6 96 1025.2 3.1 NE 3.8 0.0 0.0
06:36 12.2 11.6 96 1025.1 3.1 SW 3.8 0.0 0.0
06:37 12.2 11.6 96 1025.0 0.0 N 3.8 0.0 0.0
06:38 12.2 11.6 96 1024.9 0.0 N 3.8 0.0 0.0
06:40 12.2 11.6 96 1025.1 0.0 NE 3.8 0.0 0.0
06:41 12.2 11.6 96 1025.3 0.0 SW 3.8 0.0 0.0
06:42 12.2 11.6 96 1025.1 0.0 N 3.8 0.0 0.0
06:43 12.2 11.6 96 1025.3 0.0 N 3.8 0.0 0.0
06:44 12.2 11.6 96 1025.0 0.0 NE 3.1 0.0 0.0
06:45 12.2 11.6 96 1025.3 0.0 NW 3.1 0.0 0.0
06:46 12.2 11.6 96 1025.2 0.0 N 3.1 0.0 0.0
06:47 12.2 11.6 96 1025.1 0.0 N 0.7 0.0 0.0
06:48 12.2 11.6 96 1025.3 0.0 NE 0.7 0.0 0.0
06:49 12.2 11.6 96 1025.2 3.1 NE 3.1 0.0 0.0
06:50 12.2 11.6 96 1025.3 3.1 N 3.8 0.0 0.0
06:51 12.2 11.6 96 1025.3 3.1 N 3.8 0.0 0.0
06:52 12.2 11.6 96 1025.2 3.8 N 3.8 0.0 0.0
06:53 12.2 11.6 96 1025.2 3.1 ENE 3.8 0.0 0.0
06:54 12.2 11.6 96 1025.2 3.1 NE 3.8 0.0 0.0
06:55 12.2 11.6 96 1025.3 3.8 NE 3.8 0.0 0.0
06:56 12.2 11.6 96 1025.3 3.1 NE 3.8 0.0 0.0
06:57 12.2 11.6 96 1025.4 1.6 NW 3.8 0.0 0.0
06:58 12.2 11.6 96 1025.5 1.6 NW 3.8 0.0 0.0
07:00 12.2 11.6 96 1025.4 0.7 N 3.8 0.0 0.0
07:01 12.2 11.6 96 1025.5 0.0 N 3.8 0.0 0.0
07:03 12.2 11.6 96 1025.5 0.0 NW 3.8 0.0 0.0
07:05 12.2 11.6 96 1025.6 0.0 N 3.1 0.0 0.0
07:06 12.2 11.6 96 1025.5 0.0 N 2.2 0.0 0.0
07:07 12.2 11.6 96 1025.6 0.0 N 1.6 0.0 0.0
07:08 12.2 11.6 96 1025.6 0.0 N 1.6 0.0 0.0
07:09 12.2 11.6 96 1025.7 0.0 N 0.7 0.0 0.0
07:10 12.2 11.6 96 1025.7 0.0 N 0.0 0.0 0.0
07:11 12.2 11.6 96 1025.6 0.0 N 0.0 0.0 0.0
07:12 12.2 11.6 96 1025.5 0.0 N 0.0 0.0 0.0
07:13 12.2 11.6 96 1025.6 0.0 NW 0.0 0.0 0.0
07:14 12.2 11.6 96 1025.7 0.0 NW 0.0 0.0 0.0
07:15 12.2 11.6 96 1025.7 0.0 NW 0.0 0.0 0.0
07:16 12.2 11.6 96 1025.6 0.0 N 0.0 0.0 0.0
07:17 12.2 11.6 96 1025.5 0.0 NW 0.0 0.0 0.0
07:18 12.2 11.6 96 1025.5 0.0 N 0.0 0.0 0.0
07:19 12.2 11.6 96 1025.4 0.0 NW 0.0 0.0 0.0
07:20 12.2 11.6 96 1025.5 0.0 N 0.0 0.0 0.0
07:22 12.2 11.6 96 1025.3 0.0 N 0.0 0.0 0.0
07:23 12.2 11.6 96 1025.3 0.0 N 0.0 0.0 0.0
07:24 12.2 11.6 96 1025.4 0.0 NE 0.0 0.0 0.0
07:25 12.2 11.6 96 1025.2 0.7 NE 0.7 0.0 0.0
07:26 12.2 11.6 96 1025.2 3.1 N 3.1 0.0 0.0
07:27 12.2 11.6 96 1025.2 3.8 NE 3.8 0.0 0.0
07:28 12.2 11.6 96 1025.2 3.1 N 3.8 0.0 0.0
07:29 12.2 11.6 96 1025.1 4.5 NE 4.5 0.0 0.0
07:30 12.2 11.6 96 1025.2 3.8 N 4.5 0.0 0.0
07:31 12.2 11.6 96 1025.2 3.8 NE 4.5 0.0 0.0
07:32 12.2 11.6 96 1025.1 4.5 N 4.5 0.0 0.0
07:33 12.2 11.6 96 1025.3 3.1 NE 4.5 0.0 0.0
07:34 12.2 11.6 96 1025.2 4.5 NNE 4.5 0.0 0.0
07:35 12.2 11.6 96 1025.3 3.1 E 4.5 0.0 0.0
07:37 12.2 11.6 96 1025.3 3.8 NE 4.5 0.0 0.0
07:38 12.2 11.6 96 1025.3 3.8 N 4.5 0.0 0.0
07:39 12.2 11.6 96 1025.3 3.8 N 4.5 0.0 0.0
07:40 12.2 11.6 96 1025.4 3.8 NE 4.5 0.0 0.0
07:41 12.2 11.6 96 1025.4 3.1 NE 4.5 0.0 0.0
07:42 12.2 11.6 96 1025.4 3.1 NE 4.5 0.0 0.0
07:43 12.2 11.6 96 1025.4 3.1 NE 4.5 0.0 0.0
07:44 12.2 11.6 96 1025.4 3.1 NE 4.5 0.0 0.0
07:45 12.2 11.6 96 1025.4 2.2 NE 4.5 0.0 0.0
07:46 12.2 11.6 96 1025.4 2.2 NNW 4.5 0.0 0.0
07:47 12.2 11.6 96 1025.4 3.8 NE 4.5 0.0 0.0
07:48 12.2 11.6 96 1025.6 3.1 NE 4.5 0.0 0.0
07:49 12.2 11.6 96 1025.8 3.1 NE 4.5 0.0 0.0
07:50 12.2 11.6 96 1025.6 3.8 NE 4.5 0.0 0.0
07:51 12.2 11.6 96 1025.7 3.1 N 4.5 0.0 0.0
07:52 12.2 11.6 96 1025.7 3.1 NE 3.8 0.0 0.0
07:53 12.2 11.6 96 1025.7 3.1 NNE 3.8 0.0 0.0
07:54 12.2 11.6 96 1025.6 2.2 N 3.8 0.0 0.0
07:55 12.2 11.6 96 1025.7 1.6 N 3.8 0.0 0.0
07:56 12.2 11.6 96 1025.6 0.7 N 3.8 0.0 0.0
07:57 12.2 11.6 96 1025.5 0.0 N 3.8 0.0 0.0
07:58 12.2 11.6 96 1025.6 0.7 N 3.8 0.0 0.0
07:59 12.2 11.6 96 1025.6 0.7 N 3.8 0.0 0.0
08:00 12.2 11.6 96 1025.8 0.0 NW 3.8 0.0 0.0
08:01 12.2 11.6 96 1025.7 1.6 WNW 3.1 0.0 0.0
08:02 12.2 11.6 96 1025.6 0.7 N 3.1 0.0 0.0
08:03 12.2 11.6 96 1025.7 0.0 N 3.1 0.0 0.0
08:04 12.2 11.7 97 1025.7 0.7 N 2.2 0.0 0.0
08:05 12.2 11.6 96 1025.8 1.6 NW 1.6 0.0 0.0
08:06 12.2 11.7 97 1025.7 1.6 N 1.6 0.0 0.0
08:07 12.2 11.6 96 1025.7 1.6 NW 1.6 0.0 0.0
08:08 12.2 11.7 97 1025.7 0.0 N 1.6 0.0 0.0
08:09 12.2 11.7 97 1025.8 0.0 N 1.6 0.0 0.0
08:10 12.2 11.6 96 1025.8 0.7 NE 1.6 0.0 0.0
08:11 12.2 11.6 96 1025.8 0.7 NE 1.6 0.0 0.0
08:12 12.2 11.7 97 1025.8 0.0 NE 1.6 0.0 0.0
08:13 12.2 11.7 97 1025.8 2.2 WNW 2.2 0.0 0.0
08:14 12.2 11.7 97 1025.7 0.7 NNE 2.2 0.0 0.0
08:15 12.2 11.7 97 1025.8 1.6 NE 2.2 0.0 0.0
08:16 12.2 11.7 97 1025.8 3.1 NE 3.1 0.0 0.0
08:17 12.2 11.7 97 1025.8 3.8 NE 3.8 0.0 0.0
08:18 12.2 11.7 97 1025.7 3.8 NE 3.8 0.0 0.0
08:19 12.2 11.7 97 1025.7 3.8 NE 3.8 0.0 0.0
08:20 12.2 11.7 97 1025.7 2.2 NNE 3.8 0.0 0.0
08:21 12.3 11.8 97 1025.8 3.8 NE 3.8 0.0 0.0
08:22 12.3 11.8 97 1025.9 3.8 N 3.8 0.0 0.0
08:23 12.3 11.8 97 1026.0 3.1 NE 3.8 0.0 0.0
08:24 12.3 11.8 97 1025.9 3.1 N 3.8 0.0 0.0
08:25 12.3 11.8 97 1025.8 3.8 NE 3.8 0.0 0.0
08:26 12.3 11.8 97 1025.9 3.1 NE 3.8 0.0 0.0
08:27 12.3 11.8 97 1025.8 3.1 NE 3.8 0.0 0.0
08:28 12.3 11.8 97 1025.8 3.1 NE 3.8 0.0 0.0
08:29 12.3 11.8 97 1025.9 3.8 NE 4.5 0.0 0.0
08:30 12.3 11.8 97 1025.9 4.5 NE 4.5 0.0 0.0
08:31 12.3 11.8 97 1025.9 3.1 N 4.5 0.0 0.0
08:32 12.3 11.8 97 1025.8 4.5 NNE 5.4 0.0 0.0
08:33 12.3 11.8 97 1025.9 3.1 N 5.4 0.0 0.0
08:34 12.3 11.8 97 1025.9 3.8 NE 5.4 0.0 0.0
08:35 12.4 11.9 97 1025.9 4.5 NE 5.4 0.0 0.0
08:36 12.4 11.9 97 1025.9 4.5 NE 5.4 0.0 0.0
08:37 12.4 11.9 97 1025.9 5.4 NE 5.4 0.0 0.0
08:38 12.4 11.9 97 1025.9 4.5 NE 5.4 0.0 0.0
08:39 12.4 11.9 97 1025.9 5.4 SW 5.4 0.0 0.0
08:40 12.4 11.9 97 1026.0 3.8 NE 5.4 0.0 0.0
08:41 12.4 11.9 97 1025.9 4.5 N 5.4 0.0 0.0
08:42 12.4 11.9 97 1025.8 4.5 N 5.4 0.0 0.0
08:43 12.4 11.9 97 1025.8 4.5 N 5.4 0.0 0.0
08:44 12.4 11.9 97 1025.9 4.5 NE 5.4 0.0 0.0
08:45 12.5 12.0 97 1025.9 2.2 N 5.4 0.0 0.0
08:46 12.6 12.1 97 1025.8 3.8 NNW 5.4 0.0 0.0
08:47 12.5 12.0 97 1025.9 3.8 NE 5.4 0.0 0.0
08:48 12.5 12.0 97 1025.8 3.8 NE 5.4 0.0 0.0
08:49 12.5 12.0 97 1025.9 3.8 NE 5.4 0.0 0.0
08:50 12.5 12.0 97 1025.7 3.1 NNE 4.5 0.0 0.0
08:51 12.5 12.0 97 1025.8 3.8 NE 4.5 0.0 0.0
08:52 12.5 12.0 97 1025.9 3.1 NE 4.5 0.0 0.0
08:53 12.5 12.0 97 1025.8 3.1 N 4.5 0.0 0.0
08:54 12.5 12.0 97 1025.7 3.1 N 4.5 0.0 0.0
08:55 12.5 12.0 97 1025.8 3.1 N 4.5 0.0 0.0
08:56 12.5 12.0 97 1025.8 2.2 N 4.5 0.0 0.0
08:57 12.5 12.0 97 1025.8 1.6 NNE 4.5 0.0 0.0
08:58 12.5 12.0 97 1025.8 1.6 N 4.5 0.0 0.0
08:59 12.5 12.0 97 1025.8 1.6 N 4.5 0.0 0.0
09:00 12.6 12.1 97 1025.8 2.2 N 4.5 0.0 0.0
09:01 12.6 12.1 97 1025.7 2.2 N 4.5 0.0 0.0
09:02 12.6 12.1 97 1025.8 2.2 NW 4.5 0.0 0.0
09:03 12.6 12.1 97 1025.7 3.1 N 4.5 0.0 0.0
09:04 12.7 12.2 97 1025.8 3.8 NNE 4.5 0.0 0.0
09:05 12.6 12.1 97 1025.8 3.1 N 3.8 0.0 0.0
09:06 12.6 12.1 97 1025.7 3.8 N 3.8 0.0 0.0
09:07 12.6 12.1 97 1025.8 3.8 NNE 3.8 0.0 0.0
09:08 12.6 12.1 97 1025.9 4.5 NE 4.5 0.0 0.0
09:09 12.6 12.1 97 1025.8 4.5 NE 4.5 0.0 0.0
09:10 12.7 12.2 97 1025.8 3.8 NE 4.5 0.0 0.0
09:11 12.7 12.2 97 1025.8 3.8 NE 4.5 0.0 0.0
09:12 12.7 12.2 97 1025.8 3.1 NE 4.5 0.0 0.0
09:13 12.7 12.2 97 1025.8 3.8 N 4.5 0.0 0.0
09:14 12.7 12.2 97 1025.9 4.5 NE 4.5 0.0 0.0
09:15 12.7 12.2 97 1026.0 3.8 N 4.5 0.0 0.0
09:16 12.7 12.2 97 1025.8 3.8 NE 4.5 0.0 0.0
09:17 12.7 12.2 97 1026.0 3.1 N 4.5 0.0 0.0
09:18 12.7 12.2 97 1025.9 3.8 N 4.5 0.0 0.0
09:19 12.8 12.3 97 1025.9 3.1 NE 4.5 0.0 0.0
09:20 12.8 12.3 97 1025.9 3.1 N 4.5 0.0 0.0
09:21 12.8 12.3 97 1025.9 3.1 N 4.5 0.0 0.0
09:22 12.8 12.5 98 1025.8 2.2 N 4.5 0.0 0.0
09:23 12.8 12.3 97 1026.0 2.2 N 4.5 0.0 0.0
09:24 12.8 12.3 97 1025.9 3.1 NE 4.5 0.0 0.0
09:25 12.8 12.3 97 1026.1 3.8 NE 3.8 0.0 0.0
09:26 12.8 12.5 98 1025.9 5.4 N 5.4 0.0 0.0
09:27 12.8 12.5 98 1025.9 4.5 NE 5.4 0.0 0.0
09:28 12.9 12.6 98 1026.1 3.8 NE 5.4 0.0 0.0
09:29 12.9 12.6 98 1026.0 2.2 N 5.4 0.0 0.0
09:30 12.9 12.6 98 1025.9 3.1 N 5.4 0.0 0.0
09:31 12.9 12.6 98 1026.0 3.1 NE 5.4 0.0 0.0
09:32 12.9 12.6 98 1026.0 2.2 NE 5.4 0.0 0.0
09:33 12.9 12.4 97 1026.0 3.1 N 5.4 0.0 0.0
09:34 12.9 12.6 98 1026.0 4.5 N 5.4 0.0 0.0
09:35 13.0 12.7 98 1026.0 3.1 NE 5.4 0.0 0.0
09:36 13.0 12.5 97 1026.2 3.8 NE 4.5 0.0 0.0
09:37 13.0 12.7 98 1025.9 3.8 N 4.5 0.0 0.0
09:38 13.0 12.5 97 1026.0 3.1 NE 4.5 0.0 0.0
09:39 13.0 12.7 98 1026.0 3.1 N 4.5 0.0 0.0
09:40 13.1 12.8 98 1026.0 3.8 E 4.5 0.0 0.0
09:41 13.0 12.7 98 1026.0 4.5 E 4.5 0.0 0.0
09:42 13.1 12.8 98 1025.9 3.8 N 4.5 0.0 0.0
09:43 13.1 12.8 98 1026.0 4.5 NE 4.5 0.0 0.0
09:44 13.1 12.8 98 1026.0 3.1 N 4.5 0.0 0.0
09:45 13.1 12.8 98 1025.9 3.1 NW 4.5 0.0 0.0
09:46 13.2 12.9 98 1025.9 3.1 NW 4.5 0.0 0.0
09:47 13.2 12.9 98 1026.0 3.1 N 4.5 0.0 0.0
09:48 13.2 12.9 98 1025.9 3.1 NE 4.5 0.0 0.0
09:49 13.2 12.9 98 1025.9 1.6 NW 4.5 0.0 0.0
09:50 13.2 12.9 98 1025.9 1.6 N 4.5 0.0 0.0
09:51 13.2 12.9 98 1025.9 1.6 N 4.5 0.0 0.0
09:52 13.2 12.9 98 1025.9 1.6 N 4.5 0.0 0.0
09:53 13.2 12.9 98 1025.9 0.7 W 4.5 0.0 0.0
09:54 13.2 12.9 98 1026.1 2.2 E 3.1 0.0 0.0
09:55 13.2 12.9 98 1026.1 3.1 SE 3.1 0.0 0.0
09:56 13.3 13.0 98 1026.1 3.8 SE 3.8 0.0 0.0
09:57 13.3 13.0 98 1026.0 5.4 SE 5.4 0.0 0.0
09:58 13.3 13.0 98 1026.1 4.5 S 5.4 0.0 0.0
09:59 13.4 13.1 98 1026.2 6.9 N 6.9 0.0 0.0
10:00 13.4 13.1 98 1026.1 3.1 N 6.9 0.0 0.0
10:01 13.4 13.1 98 1026.1 3.1 N 6.9 0.0 0.0
10:02 13.4 13.1 98 1026.1 2.2 NE 6.9 0.0 0.0
10:03 13.5 13.2 98 1026.1 3.1 E 6.9 0.0 0.0
10:04 13.5 13.2 98 1026.1 2.2 SE 6.9 0.0 0.0
10:05 13.5 13.2 98 1026.1 0.0 N 6.9 0.0 0.0
10:06 13.5 13.2 98 1026.0 2.2 NE 6.9 0.0 0.0
10:07 13.5 13.2 98 1026.1 1.6 N 6.9 0.0 0.0
10:08 13.5 13.2 98 1026.1 1.6 N 6.9 0.0 0.0
10:09 13.6 13.3 98 1026.2 1.6 SW 6.9 0.0 0.0
10:10 13.6 13.3 98 1026.2 0.7 NW 3.1 0.0 0.0
10:11 13.6 13.3 98 1026.3 1.6 NW 3.1 0.0 0.0
10:12 13.6 13.3 98 1026.3 3.1 NE 3.1 0.0 0.0
10:13 13.6 13.3 98 1026.4 2.2 W 3.1 0.0 0.0
10:14 13.6 13.3 98 1026.4 3.1 SW 3.1 0.0 0.0
10:15 13.6 13.1 97 1026.4 1.6 NE 3.1 0.0 0.0
10:16 13.6 13.3 98 1026.5 3.8 SW 3.8 0.0 0.0
10:17 13.7 13.2 97 1026.3 3.1 NW 3.8 0.0 0.0
10:18 13.7 13.4 98 1026.4 0.0 N 3.8 0.0 0.0
10:19 13.7 13.2 97 1026.4 2.2 N 3.8 0.0 0.0
10:20 13.7 13.2 97 1026.3 3.1 N 3.8 0.0 0.0
10:21 13.7 13.2 97 1026.4 4.5 NW 4.5 0.0 0.0
10:22 13.7 13.2 97 1026.3 1.6 N 4.5 0.0 0.0
10:23 13.7 13.2 97 1026.3 2.2 N 4.5 0.0 0.0
10:24 13.7 13.2 97 1026.3 2.2 N 4.5 0.0 0.0
10:25 13.7 13.2 97 1026.3 2.2 NE 4.5 0.0 0.0
10:26 13.7 13.2 97 1026.4 1.6 NW 4.5 0.0 0.0
10:27 13.7 13.2 97 1026.4 2.2 NE 4.5 0.0 0.0
10:28 13.7 13.2 97 1026.4 3.8 NE 4.5 0.0 0.0
10:29 13.7 13.2 97 1026.5 1.6 S 4.5 0.0 0.0
10:30 13.7 13.2 97 1026.4 3.1 NW 4.5 0.0 0.0
10:31 13.7 13.2 97 1026.4 1.6 NW 4.5 0.0 0.0
10:32 13.7 13.2 97 1026.4 0.7 SE 3.8 0.0 0.0
10:33 13.8 13.3 97 1026.4 3.1 NW 3.8 0.0 0.0
10:34 13.8 13.3 97 1026.5 2.2 E 3.8 0.0 0.0
10:35 13.8 13.3 97 1026.4 2.2 NW 3.8 0.0 0.0
10:36 13.8 13.3 97 1026.5 1.6 NE 3.8 0.0 0.0
10:37 13.9 13.4 97 1026.3 1.6 NW 3.8 0.0 0.0
10:38 13.9 13.4 97 1026.3 3.1 N 3.8 0.0 0.0
10:39 13.9 13.4 97 1026.4 3.1 NNE 3.8 0.0 0.0
10:40 13.9 13.4 97 1026.4 2.2 NW 3.8 0.0 0.0
10:41 13.9 13.4 97 1026.4 2.2 NE 3.8 0.0 0.0
10:42 14.0 13.5 97 1026.4 2.2 NW 3.8 0.0 0.0
10:43 14.0 13.5 97 1026.4 3.1 W 3.8 0.0 0.0
10:44 14.0 13.5 97 1026.3 1.6 N 3.8 0.0 0.0
10:45 14.2 13.7 97 1026.4 2.2 S 3.8 0.0 0.0
10:46 14.2 13.7 97 1026.6 4.5 E 4.5 0.0 0.0
10:47 14.2 13.7 97 1026.6 5.4 NE 5.4 0.0 0.0
10:48 14.3 13.8 97 1026.7 2.2 NW 5.4 0.0 0.0
10:49 14.4 13.9 97 1026.7 2.2 NW 5.4 0.0 0.0
10:50 14.5 13.9 96 1026.6 2.2 N 5.4 0.0 0.0
10:51 14.5 13.9 96 1026.6 2.2 S 5.4 0.0 0.0
10:52 14.5 13.9 96 1026.7 5.4 SE 5.4 0.0 0.0
10:53 14.6 14.0 96 1026.7 5.4 SE 5.4 0.0 0.0
10:54 14.7 14.1 96 1026.7 3.8 NW 5.4 0.0 0.0
10:55 14.7 14.1 96 1026.5 2.2 N 5.4 0.0 0.0
10:56 14.7 13.9 95 1026.7 2.2 ENE 5.4 0.0 0.0
10:57 14.8 14.0 95 1026.7 1.6 E 5.4 0.0 0.0
10:58 14.8 14.0 95 1026.6 2.2 S 5.4 0.0 0.0
10:59 14.8 14.0 95 1026.6 0.7 NE 5.4 0.0 0.0
11:00 14.8 14.0 95 1026.6 0.7 NE 5.4 0.0 0.0
11:01 14.8 14.0 95 1026.8 1.6 N 5.4 0.0 0.0
11:02 15.0 14.2 95 1026.7 3.1 N 5.4 0.0 0.0
11:03 15.0 14.2 95 1026.7 2.2 N 5.4 0.0 0.0
11:04 15.1 14.3 95 1026.6 0.7 N 5.4 0.0 0.0
11:05 15.2 14.2 94 1026.7 2.2 E 3.8 0.0 0.0
11:06 15.2 14.2 94 1026.6 3.1 N 3.8 0.0 0.0
11:07 15.3 14.3 94 1026.8 3.1 NE 3.8 0.0 0.0
11:08 15.3 14.3 94 1026.5 1.6 N 3.1 0.0 0.0
11:09 15.4 14.3 93 1026.6 2.2 NE 3.1 0.0 0.0
11:10 15.4 14.3 93 1026.7 2.2 SW 3.1 0.0 0.0
11:11 15.5 14.4 93 1026.6 0.0 N 3.1 0.0 0.0
11:12 15.5 14.4 93 1026.5 1.6 N 3.1 0.0 0.0
11:13 15.6 14.5 93 1026.5 0.7 N 3.1 0.0 0.0
11:14 15.6 14.3 92 1026.5 0.7 N 3.1 0.0 0.0
11:16 15.7 14.2 91 1026.5 3.8 NE 3.8 0.0 0.0
11:17 15.7 14.2 91 1026.7 2.2 NE 5.4 0.0 0.0
11:18 15.8 14.3 91 1026.6 3.1 NNE 5.4 0.0 0.0
11:19 15.8 14.3 91 1026.6 2.2 NE 5.4 0.0 0.0
11:20 15.9 14.4 91 1026.5 3.8 N 5.4 0.0 0.0
11:21 16.0 14.5 91 1026.8 1.6 SW 5.4 0.0 0.0
11:22 16.0 14.5 91 1026.8 0.0 ESE 5.4 0.0 0.0
11:23 16.1 14.6 91 1026.7 0.0 NW 5.4 0.0 0.0
11:24 16.1 14.6 91 1026.7 0.0 NW 5.4 0.0 0.0
11:25 16.2 14.6 90 1026.7 0.7 S 5.4 0.0 0.0
11:26 16.2 14.4 89 1026.8 0.0 NE 5.4 0.0 0.0
11:27 16.3 14.5 89 1026.7 0.7 NW 5.4 0.0 0.0
11:28 16.3 14.5 89 1026.6 1.6 NW 3.8 0.0 0.0
11:29 16.3 14.3 88 1026.6 3.1 NE 3.8 0.0 0.0
11:30 16.3 14.3 88 1026.7 0.0 NE 3.8 0.0 0.0
11:31 16.4 14.4 88 1026.8 0.7 N 3.1 0.0 0.0
11:32 16.4 14.4 88 1026.7 0.0 NE 3.1 0.0 0.0
11:33 16.6 14.6 88 1026.6 2.2 NW 3.1 0.0 0.0
11:34 16.7 14.7 88 1026.9 2.2 N 3.1 0.0 0.0
11:35 16.7 14.5 87 1026.6 0.0 NE 3.1 0.0 0.0
11:36 16.8 14.6 87 1026.7 0.0 NE 3.1 0.0 0.0
11:37 16.9 14.6 86 1026.8 0.0 NE 3.1 0.0 0.0
11:38 17.0 14.7 86 1026.7 0.0 NE 3.1 0.0 0.0
11:39 17.0 14.7 86 1026.7 0.7 SE 2.2 0.0 0.0
11:40 17.0 14.5 85 1026.8 0.0 SE 2.2 0.0 0.0
11:41 17.0 14.5 85 1026.7 0.0 NE 2.2 0.0 0.0
11:42 17.1 14.6 85 1026.8 0.0 N 2.2 0.0 0.0
11:43 17.1 14.4 84 1026.8 0.0 N 2.2 0.0 0.0
11:44 17.2 14.3 83 1026.7 0.0 NE 2.2 0.0 0.0
11:45 17.3 14.4 83 1026.5 0.0 N 0.7 0.0 0.0
11:46 17.3 14.4 83 1026.5 0.0 N 0.7 0.0 0.0
11:47 17.3 14.2 82 1026.6 0.7 NE 0.7 0.0 0.0
11:48 17.4 14.1 81 1026.6 0.0 E 0.7 0.0 0.0
11:49 17.4 14.3 82 1026.7 0.0 NE 0.7 0.0 0.0
11:50 17.3 14.2 82 1026.6 0.0 E 0.7 0.0 0.0
11:51 17.3 14.2 82 1026.5 0.0 SE 0.7 0.0 0.0
11:52 17.2 14.1 82 1026.7 2.2 E 2.2 0.0 0.0
11:53 17.1 14.0 82 1026.6 2.2 S 2.2 0.0 0.0
11:54 17.1 14.0 82 1026.7 1.6 SE 2.2 0.0 0.0
11:55 17.0 13.9 82 1026.6 2.2 SE 2.2 0.0 0.0
11:56 16.9 13.8 82 1026.8 0.0 SE 2.2 0.0 0.0
11:57 16.8 13.7 82 1026.8 0.0 NE 2.2 0.0 0.0
11:58 16.8 13.7 82 1026.7 0.0 N 2.2 0.0 0.0
11:59 16.8 13.7 82 1026.7 0.0 N 2.2 0.0 0.0
12:00 16.7 13.6 82 1026.7 0.0 NE 2.2 0.0 0.0
12:01 16.7 13.6 82 1026.6 0.0 NE 2.2 0.0 0.0
12:02 16.7 13.6 82 1026.7 4.5 N 4.5 0.0 0.0
12:03 16.6 13.7 83 1026.8 2.2 N 4.5 0.0 0.0
12:04 16.6 13.7 83 1026.8 0.0 NE 4.5 0.0 0.0
12:05 16.6 13.7 83 1026.8 0.0 N 4.5 0.0 0.0
12:06 16.6 13.7 83 1026.8 2.2 N 4.5 0.0 0.0
12:07 16.6 13.7 83 1026.8 1.6 NE 4.5 0.0 0.0
12:08 16.6 13.7 83 1026.7 0.0 NW 4.5 0.0 0.0
12:09 16.5 13.6 83 1026.8 3.1 NE 4.5 0.0 0.0
12:10 16.5 13.6 83 1027.0 2.2 N 4.5 0.0 0.0
12:11 16.5 13.6 83 1026.7 0.0 N 4.5 0.0 0.0
12:12 16.5 13.6 83 1026.8 0.0 SE 3.1 0.0 0.0
12:13 16.4 13.5 83 1026.8 0.0 NE 3.1 0.0 0.0
12:14 16.4 13.5 83 1026.8 0.0 NE 3.1 0.0 0.0
12:15 16.4 13.5 83 1026.8 0.0 NW 3.1 0.0 0.0
12:16 16.4 13.5 83 1026.8 0.0 N 3.1 0.0 0.0
12:17 16.3 13.4 83 1026.8 0.7 NE 3.1 0.0 0.0
12:18 16.3 13.4 83 1026.8 0.0 N 3.1 0.0 0.0
12:19 16.3 13.4 83 1026.8 0.0 N 3.1 0.0 0.0
12:20 16.3 13.4 83 1026.8 0.0 NE 2.2 0.0 0.0
12:21 16.2 13.3 83 1026.7 0.0 NE 0.7 0.0 0.0
12:22 16.2 13.3 83 1026.7 0.0 NE 0.7 0.0 0.0
12:23 16.2 13.3 83 1026.8 0.0 N 0.7 0.0 0.0
12:24 16.1 13.2 83 1026.7 0.0 NE 0.7 0.0 0.0
12:25 16.1 13.2 83 1026.8 0.0 N 0.7 0.0 0.0
12:26 16.1 13.2 83 1026.8 0.0 N 0.7 0.0 0.0
12:27 16.0 13.1 83 1026.8 0.0 N 0.0 0.0 0.0
12:28 16.0 13.1 83 1026.8 0.0 N 0.0 0.0 0.0
12:29 16.0 13.1 83 1026.8 0.0 N 0.7 0.0 0.0
12:30 16.0 13.1 83 1027.0 0.0 NE 0.7 0.0 0.0
12:31 15.9 13.0 83 1026.8 0.7 NNE 0.7 0.0 0.0
12:32 15.9 13.0 83 1026.8 0.0 NE 0.7 0.0 0.0
12:33 15.9 13.0 83 1026.8 0.0 N 0.7 0.0 0.0
12:34 15.9 13.0 83 1026.8 0.0 N 0.7 0.0 0.0
12:35 15.8 12.9 83 1026.7 3.1 N 3.1 0.0 0.0
12:36 15.8 13.1 84 1026.9 0.0 N 3.1 0.0 0.0
12:37 15.8 13.1 84 1026.7 1.6 NE 3.1 0.0 0.0
12:38 15.8 13.1 84 1026.9 1.6 N 3.1 0.0 0.0
12:39 15.8 13.1 84 1026.8 0.0 N 3.1 0.0 0.0
12:40 15.7 13.0 84 1026.8 2.2 ESE 3.1 0.0 0.0
12:41 15.7 13.0 84 1026.8 0.7 S 3.1 0.0 0.0
12:42 15.7 13.0 84 1026.8 3.1 N 3.1 0.0 0.0
12:44 15.6 12.9 84 1026.7 2.2 E 3.1 0.0 0.0
12:45 15.6 12.9 84 1026.6 0.0 N 3.1 0.0 0.0
12:46 15.6 12.9 84 1026.8 0.0 E 3.1 0.0 0.0
12:47 15.6 12.9 84 1026.7 0.0 N 3.1 0.0 0.0
12:48 15.6 12.9 84 1026.7 0.0 N 3.1 0.0 0.0
12:49 15.6 12.9 84 1026.8 1.6 N 3.1 0.0 0.0
12:50 15.5 12.8 84 1026.8 0.0 N 3.1 0.0 0.0
12:51 15.5 12.8 84 1026.8 0.7 N 3.1 0.0 0.0
12:52 15.5 12.8 84 1026.8 0.0 NW 2.2 0.0 0.0
12:53 15.5 12.8 84 1026.7 0.7 N 2.2 0.0 0.0
12:54 15.5 12.8 84 1026.8 1.6 N 2.2 0.0 0.0
12:55 15.5 13.0 85 1026.8 1.6 N 3.8 0.0 0.0
12:56 15.5 13.0 85 1026.7 0.0 N 3.8 0.0 0.0
12:57 15.5 13.0 85 1026.8 0.0 NE 3.8 0.0 0.0
12:58 15.5 13.0 85 1026.7 0.7 N 3.8 0.0 0.0
12:59 15.5 13.0 85 1026.7 1.6 N 3.8 0.0 0.0
13:00 15.5 13.0 85 1026.5 0.7 ENE 3.8 0.0 0.0
13:01 15.5 13.0 85 1026.7 0.7 ENE 3.8 0.0 0.0
13:02 15.5 13.0 85 1026.6 0.0 N 3.8 0.0 0.0
13:03 15.5 13.0 85 1026.7 0.0 N 3.8 0.0 0.0
13:04 15.4 12.9 85 1026.5 0.0 N 3.8 0.0 0.0
13:06 15.4 13.1 86 1026.6 0.7 SE 2.2 0.0 0.0
13:07 15.4 13.1 86 1026.6 2.2 SE 2.2 0.0 0.0
13:09 15.4 13.1 86 1026.6 0.0 S 2.2 0.0 0.0
13:10 15.4 13.1 86 1026.6 0.0 E 2.2 0.0 0.0
13:11 15.4 13.1 86 1026.6 0.0 SE 2.2 0.0 0.0
13:12 15.4 13.1 86 1026.6 0.0 SE 2.2 0.0 0.0
13:13 15.4 13.1 86 1026.6 2.2 SW 3.8 0.0 0.0
13:14 15.4 13.1 86 1026.6 3.8 S 3.8 0.0 0.0
13:15 15.4 13.1 86 1026.6 3.1 E 3.8 0.0 0.0
13:16 15.4 13.1 86 1026.6 3.1 E 3.8 0.0 0.0
13:17 15.4 13.1 86 1026.6 3.1 NNE 3.8 0.0 0.0
13:18 15.4 13.1 86 1026.7 0.0 N 3.8 0.0 0.0
13:19 15.4 13.1 86 1026.6 1.6 S 3.8 0.0 0.0
13:20 15.4 13.1 86 1026.6 0.0 SE 3.8 0.0 0.0
13:21 15.4 13.1 86 1026.6 0.0 NE 3.8 0.0 0.0
13:22 15.4 13.1 86 1026.6 2.2 SE 3.8 0.0 0.0
13:23 15.3 13.2 87 1026.8 0.0 N 3.8 0.0 0.0
13:24 15.3 13.0 86 1026.7 3.1 NNE 3.8 0.0 0.0
13:25 15.3 13.0 86 1026.7 3.1 NNE 3.8 0.0 0.0
13:27 15.3 13.2 87 1026.8 2.2 SE 3.1 0.0 0.0
13:28 15.2 13.1 87 1026.6 0.7 N 3.1 0.0 0.0
13:29 15.2 13.1 87 1026.7 0.7 N 3.1 0.0 0.0
13:30 15.2 13.1 87 1026.8 0.7 S 3.1 0.0 0.0
13:31 15.2 13.1 87 1026.9 0.7 N 3.1 0.0 0.0
13:32 15.2 13.1 87 1026.8 0.7 SW 3.1 0.0 0.0
13:33 15.2 13.1 87 1026.8 0.7 N 3.1 0.0 0.0
13:34 15.2 13.1 87 1026.8 0.0 WSW 3.1 0.0 0.0
13:35 15.2 13.1 87 1026.7 0.0 N 2.2 0.0 0.0
13:36 15.2 13.1 87 1026.7 0.7 SE 2.2 0.0 0.0
13:37 15.2 13.1 87 1026.7 0.0 SE 1.6 0.0 0.0
13:38 15.2 13.1 87 1026.5 0.0 SE 1.6 0.0 0.0
13:39 15.2 13.1 87 1026.6 0.0 E 1.6 0.0 0.0
13:40 15.1 13.0 87 1026.6 0.0 S 1.6 0.0 0.0
13:41 15.1 13.0 87 1026.6 3.1 SE 3.1 0.0 0.0
13:42 15.1 13.0 87 1026.4 5.4 ESE 5.4 0.0 0.0
13:43 15.1 13.0 87 1026.5 3.8 E 5.4 0.0 0.0
13:45 15.1 13.0 87 1026.5 3.8 E 5.4 0.0 0.0
13:46 15.1 13.0 87 1026.5 3.8 SE 5.4 0.0 0.0
13:47 15.1 13.0 87 1026.5 3.1 SE 5.4 0.0 0.0
13:48 15.1 13.0 87 1026.5 2.2 N 5.4 0.0 0.0
13:49 15.0 12.9 87 1026.5 1.6 SE 5.4 0.0 0.0
13:50 15.0 12.9 87 1026.6 1.6 E 5.4 0.0 0.0
13:51 15.0 12.9 87 1026.5 0.0 N 5.4 0.0 0.0
13:52 15.0 12.9 87 1026.4 0.0 N 5.4 0.0 0.0
13:53 15.0 12.9 87 1026.6 0.0 ENE 3.8 0.0 0.0
13:54 15.0 12.9 87 1026.5 0.7 N 3.8 0.0 0.0
13:55 15.0 12.9 87 1026.6 0.0 NW 3.8 0.0 0.0
13:56 15.0 13.0 88 1026.7 0.0 N 3.1 0.0 0.0
13:57 15.0 12.9 87 1026.6 0.7 NE 3.1 0.0 0.0
13:58 15.0 13.0 88 1026.8 0.0 SE 3.1 0.0 0.0
13:59 15.0 13.0 88 1026.6 3.1 SE 3.1 0.0 0.0
14:00 15.0 13.0 88 1026.6 0.7 N 3.1 0.0 0.0
14:01 15.0 13.0 88 1026.7 2.2 SE 3.1 0.0 0.0
14:02 15.0 13.0 88 1026.7 3.1 SE 3.1 0.0 0.0
14:04 15.0 13.0 88 1026.7 3.8 SE 3.8 0.0 0.0
14:05 15.0 13.0 88 1026.6 1.6 NW 3.8 0.0 0.0
14:06 14.9 12.9 88 1026.5 0.0 E 3.8 0.0 0.0
14:07 14.9 12.9 88 1026.5 4.5 N 4.5 0.0 0.0
14:08 14.9 12.9 88 1026.6 1.6 N 4.5 0.0 0.0
14:09 14.9 12.9 88 1026.5 3.1 SE 4.5 0.0 0.0
14:10 14.9 12.9 88 1026.4 2.2 NE 4.5 0.0 0.0
14:11 14.9 12.9 88 1026.4 2.2 NE 4.5 0.0 0.0
14:12 14.9 12.9 88 1026.5 2.2 NE 4.5 0.0 0.0
14:13 14.9 12.9 88 1026.4 2.2 SE 4.5 0.0 0.0
14:14 14.8 12.8 88 1026.5 2.2 S 4.5 0.0 0.0
14:15 14.8 12.8 88 1026.5 3.1 E 4.5 0.0 0.0
14:16 14.8 12.8 88 1026.5 5.4 E 5.4 0.0 0.0
14:17 14.8 12.8 88 1026.5 3.8 E 5.4 0.0 0.0
14:18 14.8 12.8 88 1026.5 3.1 E 5.4 0.0 0.0
14:19 14.8 12.8 88 1026.4 4.5 SE 5.4 0.0 0.0
14:20 14.7 12.7 88 1026.5 3.8 NE 5.4 0.0 0.0
14:21 14.7 12.7 88 1026.5 3.1 NE 5.4 0.0 0.0
14:23 14.7 12.7 88 1026.4 1.6 NE 5.4 0.0 0.0
14:24 14.7 12.7 88 1026.5 3.1 S 5.4 0.0 0.0
14:25 14.7 12.7 88 1026.4 0.7 N 5.4 0.0 0.0
14:26 14.7 12.7 88 1026.4 3.1 SE 5.4 0.0 0.0
14:27 14.6 12.6 88 1026.4 3.1 S 4.5 0.0 0.0
14:28 14.6 12.6 88 1026.4 2.2 E 4.5 0.0 0.0
14:29 14.6 12.6 88 1026.5 1.6 SE 3.8 0.0 0.0
14:30 14.6 12.6 88 1026.4 2.2 SE 3.8 0.0 0.0
14:31 14.6 12.6 88 1026.3 3.8 SE 3.8 0.0 0.0
14:32 14.6 12.8 89 1026.4 3.1 S 3.8 0.0 0.0
14:33 14.6 12.8 89 1026.3 0.0 SE 3.8 0.0 0.0
14:34 14.6 12.8 89 1026.4 0.0 E 3.8 0.0 0.0
14:35 14.6 12.8 89 1026.5 0.0 SE 3.8 0.0 0.0
14:36 14.5 12.7 89 1026.5 0.0 SE 3.8 0.0 0.0
14:37 14.5 12.7 89 1026.5 0.0 SE 3.8 0.0 0.0
14:38 14.5 12.7 89 1026.4 3.1 SE 3.8 0.0 0.0
14:40 14.5 12.7 89 1026.4 3.8 SSE 3.8 0.0 0.0
14:41 14.5 12.7 89 1026.4 3.8 E 3.8 0.0 0.0
14:42 14.5 12.7 89 1026.5 3.1 SE 4.5 0.0 0.0
14:43 14.5 12.7 89 1026.2 3.1 SE 4.5 0.0 0.0
14:44 14.5 12.7 89 1026.4 3.8 NE 4.5 0.0 0.0
14:45 14.5 12.7 89 1026.5 2.2 S 4.5 0.0 0.0
14:46 14.4 12.6 89 1026.4 1.6 SE 4.5 0.0 0.0
14:47 14.4 12.6 89 1026.3 0.7 NE 4.5 0.0 0.0
14:48 14.4 12.6 89 1026.3 0.7 S 4.5 0.0 0.0
14:49 14.4 12.6 89 1026.5 0.0 NW 4.5 0.0 0.0
14:50 14.4 12.6 89 1026.6 0.0 NNW 4.5 0.0 0.0
14:51 14.4 12.6 89 1026.5 0.0 N 4.5 0.0 0.0
14:52 14.4 12.6 89 1026.6 0.0 N 3.8 0.0 0.0
14:53 14.4 12.8 90 1026.6 0.0 N 3.8 0.0 0.0
14:54 14.4 12.8 90 1026.6 0.0 SE 2.2 0.0 0.0
14:55 14.4 12.8 90 1026.8 0.0 SE 1.6 0.0 0.0
14:56 14.4 12.8 90 1026.8 0.0 N 1.6 0.0 0.0
14:58 14.4 12.8 90 1026.8 0.0 SE 0.7 0.0 0.0
14:59 14.4 12.8 90 1026.7 0.0 SE 0.0 0.0 0.0
15:00 14.4 12.8 90 1026.7 0.0 N 0.0 0.0 0.0
15:01 14.4 12.8 90 1026.6 0.0 E 0.0 0.0 0.0
15:02 14.4 12.8 90 1026.7 0.0 NE 0.0 0.0 0.0
15:03 14.4 12.8 90 1026.7 0.0 SE 0.0 0.0 0.0
15:04 14.4 12.8 90 1026.7 0.0 E 0.0 0.0 0.0
15:06 14.4 12.8 90 1026.7 0.0 NE 0.0 0.0 0.0
15:07 14.4 12.8 90 1026.8 0.0 NE 0.0 0.0 0.0
15:08 14.4 12.8 90 1026.7 0.0 NE 0.0 0.0 0.0
15:09 14.4 12.8 90 1026.8 0.0 NE 0.0 0.0 0.0
15:10 14.4 12.8 90 1026.8 0.7 SE 0.7 0.0 0.0
15:11 14.4 12.8 90 1026.8 0.0 SE 0.7 0.0 0.0
15:12 14.4 12.8 90 1026.6 0.0 SE 0.7 0.0 0.0
15:13 14.4 12.8 90 1026.6 0.0 E 0.7 0.0 0.0
15:14 14.4 12.8 90 1026.6 0.0 E 0.7 0.0 0.0
15:15 14.4 12.8 90 1026.7 0.0 E 0.7 0.0 0.0
15:16 14.4 12.8 90 1026.7 0.0 NE 0.7 0.0 0.0
15:17 14.4 12.8 90 1026.5 0.0 NE 0.7 0.0 0.0
15:18 14.4 12.8 90 1026.8 0.0 NE 0.7 0.0 0.0
15:19 14.4 12.8 90 1026.7 0.0 S 0.7 0.0 0.0
15:20 14.4 12.8 90 1026.7 0.7 NE 0.7 0.0 0.0
15:21 14.4 12.8 90 1026.6 0.0 S 0.7 0.0 0.0
15:23 14.4 12.8 90 1026.7 0.0 S 0.7 0.0 0.0
15:24 14.4 12.8 90 1026.7 1.6 SE 1.6 0.0 0.0
15:25 14.4 13.0 91 1026.6 2.2 S 2.2 0.0 0.0
15:26 14.4 12.8 90 1026.7 2.2 S 2.2 0.0 0.0
15:27 14.4 13.0 91 1026.8 2.2 S 2.2 0.0 0.0
15:28 14.4 13.0 91 1026.7 2.2 SE 2.2 0.0 0.0
15:29 14.4 13.0 91 1026.7 1.6 NE 2.2 0.0 0.0
15:30 14.4 13.0 91 1026.8 0.7 E 2.2 0.0 0.0
15:31 14.4 13.0 91 1026.8 0.7 N 2.2 0.0 0.0
15:32 14.4 13.0 91 1026.8 0.0 SE 2.2 0.0 0.0
15:33 14.4 13.0 91 1026.9 0.0 SE 2.2 0.0 0.0
15:34 14.4 13.0 91 1026.9 0.0 SE 2.2 0.0 0.0
15:35 14.4 13.0 91 1026.8 0.0 NE 2.2 0.0 0.0
15:36 14.4 13.0 91 1026.9 0.0 NE 2.2 0.0 0.0
15:37 14.4 13.0 91 1026.9 0.0 NE 2.2 0.0 0.0
15:38 14.4 13.0 91 1026.8 0.0 NE 2.2 0.0 0.0
15:39 14.4 13.0 91 1026.9 0.0 NE 1.6 0.0 0.0
15:40 14.4 13.0 91 1026.8 0.0 NE 0.7 0.0 0.0
15:42 14.4 13.0 91 1026.8 0.0 SW 0.0 0.0 0.0
15:43 14.4 13.0 91 1026.8 0.0 SE 0.0 0.0 0.0
15:44 14.4 13.0 91 1026.8 0.0 SW 0.0 0.0 0.0
15:45 14.4 13.0 91 1026.6 0.0 SE 0.0 0.0 0.0
15:46 14.4 13.0 91 1026.8 0.0 SE 0.0 0.0 0.0
15:47 14.4 13.0 91 1026.7 0.0 S 0.0 0.0 0.0
15:48 14.4 13.0 91 1026.8 0.0 S 0.0 0.0 0.0
15:49 14.4 13.0 91 1026.8 0.0 S 0.0 0.0 0.0
15:50 14.4 13.0 91 1026.9 0.0 S 0.0 0.0 0.0
15:51 14.4 13.0 91 1026.7 0.0 SE 0.0 0.0 0.0
15:52 14.4 13.0 91 1026.7 0.0 SE 0.0 0.0 0.0
15:53 14.4 13.0 91 1026.7 0.0 SE 0.0 0.0 0.0
15:54 14.4 13.0 91 1026.6 0.0 SE 0.0 0.0 0.0
15:55 14.4 13.0 91 1026.6 1.6 SE 1.6 0.0 0.0
15:56 14.4 13.0 91 1026.5 0.0 E 1.6 0.0 0.0
15:57 14.4 13.0 91 1026.5 0.0 E 1.6 0.0 0.0
15:58 14.4 13.0 91 1026.6 0.0 SE 1.6 0.0 0.0
15:59 14.4 13.0 91 1026.5 0.0 NE 1.6 0.0 0.0
16:01 14.4 13.0 91 1026.7 0.0 NE 1.6 0.0 0.0
16:02 14.4 13.0 91 1026.5 0.0 E 1.6 0.0 0.0
16:03 14.4 13.0 91 1026.7 0.0 E 1.6 0.0 0.0
16:04 14.4 13.0 91 1026.7 0.0 E 1.6 0.0 0.0
16:05 14.4 13.0 91 1026.7 0.0 E 1.6 0.0 0.0
16:06 14.4 13.0 91 1026.7 0.0 E 0.0 0.0 0.0
16:07 14.4 13.0 91 1026.8 0.0 E 0.0 0.0 0.0
16:08 14.4 13.0 91 1026.7 0.0 E 0.0 0.0 0.0
16:09 14.4 13.0 91 1026.8 0.0 E 0.0 0.0 0.0
16:10 14.4 13.0 91 1026.6 0.0 E 0.0 0.0 0.0
16:11 14.4 13.0 91 1026.8 0.0 E 0.0 0.0 0.0
16:12 14.4 13.1 92 1026.9 0.0 E 0.0 0.0 0.0
16:13 14.4 13.0 91 1026.9 0.0 E 0.0 0.0 0.0
16:14 14.4 13.1 92 1026.9 0.0 E 0.0 0.0 0.0
16:15 14.4 13.1 92 1026.9 0.0 NE 0.0 0.0 0.0
16:16 14.4 13.1 92 1026.9 0.0 NE 0.0 0.0 0.0
16:17 14.4 13.1 92 1026.9 0.0 NE 0.0 0.0 0.0
16:18 14.3 13.0 92 1027.0 0.0 NNE 0.0 0.0 0.0
16:20 14.4 13.1 92 1026.8 0.0 SE 0.0 0.0 0.0
16:21 14.3 13.0 92 1026.8 0.0 E 0.0 0.0 0.0
16:22 14.3 13.0 92 1026.8 0.0 E 0.0 0.0 0.0
16:23 14.3 13.0 92 1026.8 0.0 SE 0.0 0.0 0.0
16:24 14.3 13.0 92 1026.9 0.0 SE 0.0 0.0 0.0
16:25 14.3 13.0 92 1026.9 0.0 SE 0.0 0.0 0.0
16:26 14.2 12.9 92 1026.9 0.0 SE 0.0 0.0 0.0
16:27 14.3 13.0 92 1027.0 0.0 SE 0.0 0.0 0.0
16:28 14.3 13.0 92 1026.9 0.0 SE 0.0 0.0 0.0
16:29 14.3 13.0 92 1026.8 0.0 SE 0.0 0.0 0.0
16:30 14.3 13.0 92 1026.8 0.0 S 0.0 0.0 0.0
16:31 14.3 13.0 92 1026.9 0.0 SE 0.0 0.0 0.0
16:32 14.3 13.0 92 1027.0 0.0 SE 0.0 0.0 0.0
16:33 14.2 12.9 92 1027.0 0.0 E 0.0 0.0 0.0
16:34 14.2 12.9 92 1027.0 0.0 E 0.0 0.0 0.0
16:35 14.2 12.9 92 1027.1 0.0 NE 0.0 0.0 0.0
16:36 14.2 12.9 92 1027.1 0.0 NE 0.0 0.0 0.0
16:37 14.2 12.9 92 1027.1 0.0 NE 0.0 0.0 0.0
16:38 14.2 12.9 92 1027.1 0.0 SE 0.0 0.0 0.0
16:39 14.2 12.9 92 1027.0 0.0 SE 0.0 0.0 0.0
16:41 14.2 12.9 92 1027.0 0.0 NE 0.0 0.0 0.0
16:42 14.2 12.9 92 1027.1 0.0 E 0.0 0.0 0.0
16:43 14.2 12.9 92 1026.9 0.0 SE 0.0 0.0 0.0
16:44 14.2 12.9 92 1027.0 0.0 SE 0.0 0.0 0.0
16:45 14.2 12.9 92 1027.0 0.0 E 0.0 0.0 0.0
16:46 14.2 12.9 92 1027.2 0.0 E 0.0 0.0 0.0
16:47 14.2 12.9 92 1026.9 0.0 SE 0.0 0.0 0.0
16:48 14.2 12.9 92 1026.9 0.0 SE 0.0 0.0 0.0
16:49 14.2 12.9 92 1027.0 0.0 SE 0.0 0.0 0.0
16:50 14.2 12.9 92 1027.1 0.0 SE 0.0 0.0 0.0
16:51 14.2 12.9 92 1027.1 0.0 S 0.0 0.0 0.0
16:52 14.1 12.8 92 1026.9 0.0 E 0.0 0.0 0.0
16:53 14.2 12.9 92 1027.2 0.0 SE 0.0 0.0 0.0
16:54 14.2 12.9 92 1027.1 0.0 SE 0.0 0.0 0.0
16:55 14.2 12.9 92 1026.9 0.0 S 0.0 0.0 0.0
16:56 14.1 12.8 92 1027.1 0.0 SE 0.0 0.0 0.0
16:57 14.1 12.8 92 1026.9 0.0 S 0.0 0.0 0.0
16:59 14.1 12.8 92 1027.0 0.0 S 0.0 0.0 0.0
17:00 14.1 12.8 92 1026.9 0.0 S 0.0 0.0 0.0
17:01 14.1 12.8 92 1026.9 0.0 S 0.0 0.0 0.0
17:02 14.1 12.8 92 1026.9 0.0 SE 0.0 0.0 0.0
17:03 14.1 12.8 92 1027.0 0.0 SE 0.0 0.0 0.0
17:04 14.1 12.8 92 1026.9 0.0 SE 0.0 0.0 0.0
17:06 14.1 12.8 92 1026.9 0.0 SE 0.0 0.0 0.0
17:07 14.1 12.8 92 1026.8 0.0 SE 0.0 0.0 0.0
17:08 14.1 12.8 92 1027.0 0.0 SE 0.0 0.0 0.0
17:09 14.1 12.8 92 1027.0 0.0 S 0.0 0.0 0.0
17:10 14.1 12.8 92 1026.8 0.0 S 0.0 0.0 0.0
17:11 14.1 12.8 92 1026.8 0.0 S 0.0 0.0 0.0
17:12 14.1 13.0 93 1026.8 0.0 S 0.0 0.0 0.0
17:13 14.0 12.9 93 1026.8 0.0 S 0.0 0.0 0.0
17:14 14.0 12.9 93 1026.9 0.0 S 0.0 0.0 0.0
17:15 14.0 12.9 93 1026.8 0.0 SE 0.0 0.0 0.0
17:16 14.0 12.9 93 1026.8 0.0 SE 0.0 0.0 0.0
17:17 14.0 12.9 93 1026.9 0.0 S 0.0 0.0 0.0
17:18 14.0 12.9 93 1027.0 0.0 SE 0.0 0.0 0.0
17:19 14.0 12.9 93 1027.0 0.0 S 0.0 0.0 0.0
17:20 14.0 12.9 93 1026.8 0.0 S 0.0 0.0 0.0
17:21 14.0 12.9 93 1026.9 0.0 S 0.0 0.0 0.0
17:22 14.0 12.9 93 1027.0 0.0 SE 0.0 0.0 0.0
17:23 14.0 12.9 93 1027.0 0.0 SE 0.0 0.0 0.0
17:24 14.0 12.9 93 1026.8 0.0 SE 0.0 0.0 0.0
17:25 14.0 12.9 93 1027.0 0.0 S 0.0 0.0 0.0
17:27 14.0 12.9 93 1027.0 0.0 S 0.0 0.0 0.0
17:28 14.0 12.9 93 1026.9 0.0 S 0.0 0.0 0.0
17:29 14.0 12.9 93 1027.0 0.0 S 0.0 0.0 0.0
17:30 14.0 12.9 93 1027.0 0.0 S 0.0 0.0 0.0
17:31 14.0 12.9 93 1027.0 0.0 S 0.0 0.0 0.0
17:32 14.0 12.9 93 1027.1 0.0 S 0.0 0.0 0.0
17:33 14.0 12.9 93 1027.1 0.0 S 0.0 0.0 0.0
17:34 14.0 12.9 93 1027.1 0.0 S 0.0 0.0 0.0
17:35 13.9 12.8 93 1027.1 0.0 S 0.0 0.0 0.0
17:36 13.9 12.8 93 1027.1 0.0 S 0.0 0.0 0.0
17:37 13.9 12.8 93 1027.1 0.0 S 0.0 0.0 0.0
17:38 13.9 12.8 93 1027.1 0.0 S 0.0 0.0 0.0
17:39 13.9 12.8 93 1027.2 0.0 S 0.0 0.0 0.0
17:40 13.9 12.8 93 1027.1 0.0 S 0.0 0.0 0.0
17:41 13.9 12.8 93 1027.1 0.0 S 0.0 0.0 0.0
17:42 13.9 12.8 93 1027.2 0.0 S 0.0 0.0 0.0
17:43 13.9 12.8 93 1026.9 0.0 S 0.0 0.0 0.0
17:45 13.9 12.8 93 1027.0 0.0 S 0.0 0.0 0.0
17:46 13.9 12.8 93 1027.1 0.0 S 0.0 0.0 0.0
17:47 13.9 12.8 93 1027.0 0.0 S 0.0 0.0 0.0
17:48 13.9 12.8 93 1027.1 0.0 S 0.0 0.0 0.0
17:49 13.9 12.8 93 1027.0 0.0 S 0.0 0.0 0.0
17:50 13.9 12.8 93 1027.0 0.0 S 0.0 0.0 0.0
17:51 13.9 12.8 93 1027.3 0.0 S 0.0 0.0 0.0
17:52 13.9 12.8 93 1027.1 0.0 S 0.0 0.0 0.0
17:53 13.9 12.8 93 1027.1 0.0 S 0.0 0.0 0.0
17:54 13.9 12.8 93 1027.1 0.0 S 0.0 0.0 0.0
17:55 13.9 12.8 93 1027.2 0.0 S 0.0 0.0 0.0
17:56 13.9 12.8 93 1027.2 0.0 S 0.0 0.0 0.0
17:57 13.9 12.8 93 1027.0 0.0 S 0.0 0.0 0.0
17:58 13.9 12.8 93 1027.2 0.0 S 0.0 0.0 0.0
17:59 13.9 12.8 93 1027.2 0.0 S 0.0 0.0 0.0
18:00 13.9 12.8 93 1027.2 0.0 S 0.0 0.0 0.0
18:01 13.9 12.8 93 1027.2 0.0 S 0.0 0.0 0.0
18:02 13.9 12.8 93 1027.2 0.0 S 0.0 0.0 0.0
18:04 13.9 12.8 93 1027.3 0.0 S 0.0 0.0 0.0
18:05 13.9 12.8 93 1027.2 0.0 S 0.0 0.0 0.0
18:06 13.9 13.0 94 1027.3 0.0 S 0.0 0.0 0.0
18:07 13.9 12.8 93 1027.3 0.0 S 0.0 0.0 0.0
18:08 13.9 12.8 93 1027.4 0.0 S 0.0 0.0 0.0
18:09 13.9 13.0 94 1027.4 0.0 S 0.0 0.0 0.0
18:10 13.9 13.0 94 1027.4 0.0 S 0.0 0.0 0.0
18:11 13.9 13.0 94 1027.3 0.0 S 0.0 0.0 0.0
18:12 13.9 13.0 94 1027.4 0.0 S 0.0 0.0 0.0
18:13 13.9 13.0 94 1027.5 0.0 S 0.0 0.0 0.0
18:14 13.9 13.0 94 1027.5 0.0 S 0.0 0.0 0.0
18:15 13.9 13.0 94 1027.5 0.0 S 0.0 0.0 0.0
18:16 13.9 13.0 94 1027.6 0.0 S 0.0 0.0 0.0
18:17 13.9 13.0 94 1027.6 0.0 N 0.0 0.0 0.0
18:18 13.9 13.0 94 1027.6 0.0 N 0.0 0.0 0.0
18:19 13.9 13.0 94 1027.6 0.0 N 0.0 0.0 0.0
18:20 13.8 12.9 94 1027.6 0.0 N 0.0 0.0 0.0
18:21 13.8 12.9 94 1027.7 0.0 N 0.0 0.0 0.0
18:22 13.8 12.9 94 1027.8 0.0 N 0.0 0.0 0.0
18:24 13.8 12.9 94 1027.8 0.0 NW 0.0 0.0 0.0
18:25 13.8 12.9 94 1027.8 0.0 NW 0.0 0.0 0.0
18:26 13.8 12.9 94 1027.8 0.0 NW 0.0 0.0 0.0
18:27 13.8 12.9 94 1027.8 0.0 N 0.0 0.0 0.0
18:28 13.8 12.9 94 1027.8 0.0 NW 0.0 0.0 0.0
18:29 13.8 12.9 94 1027.8 0.0 NW 0.0 0.0 0.0
18:30 13.8 12.9 94 1028.0 0.0 NW 0.0 0.0 0.0
18:31 13.8 12.9 94 1027.9 0.0 NW 0.0 0.0 0.0
18:32 13.8 12.9 94 1028.1 0.0 NW 0.0 0.0 0.0
18:33 13.8 12.9 94 1028.1 0.0 NW 0.0 0.0 0.0
18:34 13.8 12.9 94 1028.0 0.0 W 0.0 0.0 0.0
18:35 13.8 12.9 94 1028.1 0.0 NW 0.0 0.0 0.0
18:36 13.8 12.9 94 1028.2 0.0 NW 0.0 0.0 0.0
18:37 13.8 12.9 94 1028.1 0.0 NW 0.0 0.0 0.0
18:38 13.8 12.9 94 1028.1 0.0 NW 0.0 0.0 0.0
18:39 13.8 12.9 94 1028.2 0.0 NW 0.0 0.0 0.0
18:40 13.8 12.9 94 1028.2 0.0 NW 0.0 0.0 0.0
18:41 13.8 12.9 94 1028.2 0.0 NW 0.0 0.0 0.0
18:43 13.8 12.9 94 1028.3 0.0 NW 0.0 0.0 0.0
18:44 13.8 12.9 94 1028.1 0.0 NW 0.0 0.0 0.0
18:45 13.8 12.9 94 1028.1 0.0 N 0.0 0.0 0.0
18:46 13.8 12.9 94 1028.3 0.0 N 0.0 0.0 0.0
18:47 13.8 12.9 94 1028.3 0.0 N 0.0 0.0 0.0
18:48 13.8 12.9 94 1028.4 0.0 NW 0.0 0.0 0.0
18:49 13.7 12.8 94 1028.4 0.0 NW 0.0 0.0 0.0
18:50 13.8 12.9 94 1028.2 0.0 NW 0.0 0.0 0.0
18:51 13.7 12.8 94 1028.4 0.0 NW 0.0 0.0 0.0
18:52 13.7 12.8 94 1028.3 0.0 N 0.0 0.0 0.0
18:53 13.7 12.8 94 1028.4 0.0 N 0.0 0.0 0.0
18:54 13.7 12.8 94 1028.4 0.0 N 0.0 0.0 0.0
18:55 13.7 12.8 94 1028.2 0.0 NW 0.0 0.0 0.0
18:56 13.7 12.8 94 1028.2 0.0 NW 0.0 0.0 0.0
18:57 13.7 12.8 94 1028.3 0.0 NW 0.0 0.0 0.0
18:58 13.7 12.8 94 1028.3 0.0 NW 0.0 0.0 0.0
18:59 13.7 12.8 94 1028.2 0.0 NE 0.0 0.0 0.0
19:00 13.7 12.8 94 1028.2 0.0 NW 0.0 0.0 0.0
19:02 13.7 12.8 94 1028.3 0.0 NW 0.0 0.0 0.0
19:03 13.7 12.8 94 1028.3 0.0 NW 0.0 0.0 0.0
19:04 13.7 12.8 94 1028.4 0.0 NW 0.0 0.0 0.0
19:05 13.7 12.8 94 1028.5 0.0 NW 0.0 0.0 0.0
19:06 13.7 12.8 94 1028.5 0.0 NW 0.0 0.0 0.0
19:07 13.7 12.8 94 1028.3 0.0 NW 0.0 0.0 0.0
19:08 13.7 12.8 94 1028.3 0.0 NW 0.0 0.0 0.0
19:09 13.7 12.8 94 1028.3 0.0 NW 0.0 0.0 0.0
19:11 13.7 12.8 94 1028.4 0.0 NW 0.0 0.0 0.0
19:12 13.6 12.7 94 1028.4 0.0 N 0.0 0.0 0.0
19:13 13.6 12.7 94 1028.4 0.0 N 0.0 0.0 0.0
19:14 13.6 12.7 94 1028.6 0.0 N 0.0 0.0 0.0
19:15 13.6 12.7 94 1028.3 0.0 N 0.0 0.0 0.0
19:16 13.6 12.7 94 1028.5 0.0 N 0.0 0.0 0.0
19:17 13.6 12.7 94 1028.4 0.0 NW 0.0 0.0 0.0
19:18 13.6 12.7 94 1028.5 0.0 NW 0.0 0.0 0.0
19:19 13.6 12.8 95 1028.5 0.0 N 0.0 0.0 0.0
19:20 13.6 12.8 95 1028.6 0.0 N 0.0 0.0 0.0
19:21 13.6 12.7 94 1028.6 0.0 N 0.0 0.0 0.0
19:22 13.6 12.7 94 1028.5 0.0 NW 0.0 0.0 0.0
19:23 13.6 12.8 95 1028.6 0.0 N 0.0 0.0 0.0
19:24 13.6 12.8 95 1028.5 0.0 N 0.0 0.0 0.0
19:25 13.6 12.8 95 1028.6 0.0 N 0.0 0.0 0.0
19:26 13.6 12.8 95 1028.6 0.0 N 0.0 0.0 0.0
19:27 13.6 12.8 95 1028.6 0.0 N 0.0 0.0 0.0
19:28 13.5 12.6 94 1028.6 0.0 NE 0.0 0.0 0.0
19:29 13.6 12.8 95 1028.5 0.0 N 0.0 0.0 0.0
19:30 13.6 12.8 95 1028.4 0.0 N 0.0 0.0 0.0
19:31 13.5 12.7 95 1028.5 0.0 NE 0.0 0.0 0.0
19:32 13.5 12.7 95 1028.5 0.0 NE 0.0 0.0 0.0
19:33 13.5 12.7 95 1028.5 0.0 NE 0.0 0.0 0.0
19:34 13.5 12.7 95 1028.5 0.0 NE 0.0 0.0 0.0
19:35 13.5 12.7 95 1028.5 0.0 NE 0.0 0.0 0.0
19:36 13.5 12.7 95 1028.4 0.0 NE 0.0 0.0 0.0
19:37 13.5 12.7 95 1028.4 0.0 NE 0.0 0.0 0.0
19:38 13.5 12.7 95 1028.3 0.0 NE 0.0 0.0 0.0
19:39 13.5 12.7 95 1028.4 0.0 NE 0.0 0.0 0.0
19:41 13.5 12.7 95 1028.4 0.0 NE 0.0 0.0 0.0
19:42 13.5 12.7 95 1028.3 0.0 NE 0.0 0.0 0.0
19:43 13.5 12.7 95 1028.4 0.0 W 0.0 0.0 0.0
19:44 13.5 12.7 95 1028.4 0.0 W 0.0 0.0 0.0
19:45 13.5 12.7 95 1028.3 0.0 W 0.0 0.0 0.0
19:46 13.5 12.7 95 1028.3 0.0 W 0.0 0.0 0.0
19:47 13.4 12.6 95 1028.2 0.0 W 0.0 0.0 0.0
19:48 13.4 12.6 95 1028.5 0.0 N 0.0 0.0 0.0
19:49 13.4 12.6 95 1028.4 0.0 N 0.0 0.0 0.0
19:50 13.4 12.6 95 1028.4 0.0 N 0.0 0.0 0.0
19:51 13.4 12.6 95 1028.4 0.0 N 0.0 0.0 0.0
19:52 13.4 12.6 95 1028.4 0.0 N 0.0 0.0 0.0
19:53 13.4 12.6 95 1028.3 0.0 N 0.0 0.0 0.0
19:54 13.4 12.6 95 1028.3 0.0 N 0.0 0.0 0.0
19:55 13.4 12.6 95 1028.3 0.0 N 0.0 0.0 0.0
19:56 13.4 12.6 95 1028.3 0.0 N 0.0 0.0 0.0
19:57 13.4 12.6 95 1028.4 0.0 N 0.0 0.0 0.0
19:58 13.4 12.6 95 1028.4 0.0 N 0.0 0.0 0.0
19:59 13.4 12.6 95 1028.5 0.0 N 0.0 0.0 0.0
20:00 13.4 12.6 95 1028.5 0.0 N 0.0 0.0 0.0
20:01 13.4 12.6 95 1028.4 0.0 N 0.0 0.0 0.0
20:02 13.4 12.6 95 1028.4 0.0 N 0.0 0.0 0.0
20:03 13.4 12.6 95 1028.4 0.0 N 0.0 0.0 0.0
20:04 13.4 12.6 95 1028.4 0.0 N 0.0 0.0 0.0
20:05 13.4 12.6 95 1028.3 0.0 N 0.0 0.0 0.0
20:06 13.4 12.6 95 1028.3 0.0 N 0.0 0.0 0.0
20:07 13.4 12.6 95 1028.2 0.0 N 0.0 0.0 0.0
20:09 13.3 12.5 95 1028.1 0.0 N 0.0 0.0 0.0
20:10 13.4 12.6 95 1028.1 0.0 N 0.0 0.0 0.0
20:11 13.3 12.5 95 1028.3 0.0 N 0.0 0.0 0.0
20:12 13.3 12.5 95 1028.3 0.0 N 0.0 0.0 0.0
20:13 13.3 12.5 95 1028.2 0.0 N 0.0 0.0 0.0
20:14 13.3 12.5 95 1028.2 0.0 N 0.0 0.0 0.0
20:15 13.3 12.5 95 1028.3 0.0 N 0.0 0.0 0.0
20:16 13.3 12.5 95 1028.4 0.7 N 0.7 0.0 0.0
20:17 13.3 12.5 95 1028.2 0.0 NE 0.7 0.0 0.0
20:18 13.3 12.5 95 1028.2 0.0 NE 0.7 0.0 0.0
20:19 13.3 12.5 95 1028.3 0.0 NE 0.7 0.0 0.0
20:20 13.3 12.5 95 1028.5 0.0 NE 0.7 0.0 0.0
20:21 13.3 12.5 95 1028.3 0.0 NE 0.7 0.0 0.0
20:22 13.3 12.5 95 1028.3 0.0 NE 0.7 0.0 0.0
20:23 13.3 12.5 95 1028.2 0.0 NE 0.7 0.0 0.0
20:24 13.3 12.5 95 1028.2 0.0 NW 0.7 0.0 0.0
20:25 13.3 12.5 95 1028.1 0.0 NW 0.7 0.0 0.0
20:26 13.3 12.5 95 1028.2 0.0 NW 0.7 0.0 0.0
20:27 13.3 12.5 95 1028.2 0.0 NW 0.0 0.0 0.0
20:28 13.3 12.5 95 1028.0 0.0 NW 0.0 0.0 0.0
20:29 13.3 12.5 95 1028.1 0.0 NE 0.0 0.0 0.0
20:30 13.3 12.5 95 1028.2 0.0 N 0.0 0.0 0.0
20:31 13.3 12.5 95 1028.1 0.0 N 0.0 0.0 0.0
20:32 13.3 12.5 95 1028.0 0.0 N 0.0 0.0 0.0
20:33 13.3 12.5 95 1028.1 0.0 NE 0.0 0.0 0.0
20:35 13.3 12.5 95 1027.9 0.0 NE 0.0 0.0 0.0
20:36 13.2 12.4 95 1028.0 0.0 NE 0.0 0.0 0.0
20:37 13.2 12.4 95 1028.1 0.0 NE 0.0 0.0 0.0
20:38 13.3 12.5 95 1028.1 0.0 NE 0.0 0.0 0.0
20:39 13.2 12.4 95 1028.0 0.0 NE 0.0 0.0 0.0
20:40 13.2 12.4 95 1028.1 0.0 NE 0.0 0.0 0.0
20:41 13.2 12.4 95 1028.2 0.0 N 0.0 0.0 0.0
20:42 13.2 12.4 95 1028.1 0.0 N 0.0 0.0 0.0
20:43 13.2 12.4 95 1028.1 0.0 N 0.0 0.0 0.0
20:44 13.2 12.4 95 1028.1 0.0 N 0.0 0.0 0.0
20:45 13.2 12.4 95 1028.1 0.0 N 0.0 0.0 0.0
20:46 13.2 12.4 95 1028.0 0.0 N 0.0 0.0 0.0
20:47 13.2 12.4 95 1028.2 0.0 N 0.0 0.0 0.0
20:48 13.2 12.4 95 1028.1 0.0 N 0.0 0.0 0.0
20:49 13.2 12.4 95 1028.0 0.0 N 0.0 0.0 0.0
20:50 13.2 12.4 95 1028.1 0.0 N 0.0 0.0 0.0
20:51 13.2 12.4 95 1028.1 0.0 N 0.0 0.0 0.0
20:52 13.1 12.3 95 1028.0 0.0 N 0.0 0.0 0.0
20:53 13.1 12.3 95 1028.1 0.0 N 0.0 0.0 0.0
20:54 13.1 12.3 95 1028.1 0.0 N 0.0 0.0 0.0
20:55 13.1 12.3 95 1028.2 0.0 N 0.0 0.0 0.0
20:56 13.1 12.3 95 1028.2 0.0 N 0.0 0.0 0.0
20:57 13.1 12.3 95 1028.2 0.0 N 0.0 0.0 0.0
20:58 13.1 12.3 95 1028.3 0.0 N 0.0 0.0 0.0
20:59 13.1 12.3 95 1028.2 2.2 NE 2.2 0.0 0.0
21:00 13.1 12.3 95 1028.1 1.6 NE 2.2 0.0 0.0
21:02 13.1 12.3 95 1028.3 0.0 N 2.2 0.0 0.0
21:03 13.1 12.3 95 1028.4 0.0 N 2.2 0.0 0.0
21:04 13.1 12.3 95 1028.3 0.0 N 2.2 0.0 0.0
21:05 13.1 12.3 95 1028.4 0.0 N 2.2 0.0 0.0
21:06 13.0 12.1 94 1028.5 0.0 N 2.2 0.0 0.0
21:08 13.0 12.1 94 1028.6 0.0 N 2.2 0.0 0.0
21:09 13.0 12.1 94 1028.5 0.0 N 1.6 0.0 0.0
21:10 13.0 12.1 94 1028.4 0.0 N 0.0 0.0 0.0
21:11 13.0 12.1 94 1028.4 0.0 N 0.0 0.0 0.0
21:12 13.0 12.1 94 1028.4 0.0 N 0.0 0.0 0.0
21:13 13.0 12.1 94 1028.6 0.0 N 0.0 0.0 0.0
21:14 13.0 12.1 94 1028.6 0.0 N 0.0 0.0 0.0
21:15 13.0 12.1 94 1028.5 0.0 N 0.0 0.0 0.0
21:16 13.0 12.1 94 1028.5 0.0 N 0.0 0.0 0.0
21:18 12.9 12.0 94 1028.7 0.0 N 0.0 0.0 0.0
21:19 13.0 12.1 94 1028.6 0.0 NW 0.0 0.0 0.0
21:20 13.0 12.1 94 1028.7 0.0 N 0.0 0.0 0.0
21:21 13.0 12.1 94 1028.6 0.0 N 0.0 0.0 0.0
21:22 12.9 12.0 94 1028.5 0.0 NW 0.0 0.0 0.0
21:23 12.9 12.0 94 1028.8 0.0 NW 0.0 0.0 0.0
21:24 12.9 12.0 94 1028.8 0.0 N 0.0 0.0 0.0
21:25 12.9 12.0 94 1028.6 0.0 N 0.0 0.0 0.0
21:26 12.9 12.0 94 1028.7 0.0 NW 0.0 0.0 0.0
21:27 12.9 12.0 94 1028.8 0.0 NW 0.0 0.0 0.0
21:28 12.9 12.0 94 1029.0 0.0 N 0.0 0.0 0.0
21:29 12.9 12.0 94 1028.8 0.0 N 0.0 0.0 0.0
21:30 12.9 12.0 94 1028.7 0.0 N 0.0 0.0 0.0
21:31 12.9 12.0 94 1028.8 0.0 N 0.0 0.0 0.0
21:32 12.9 12.0 94 1028.7 0.0 N 0.0 0.0 0.0
21:33 13.0 12.1 94 1028.8 0.0 NNE 0.0 0.0 0.0
21:34 12.9 12.0 94 1028.8 0.0 N 0.0 0.0 0.0
21:35 13.0 12.1 94 1028.8 0.0 N 0.0 0.0 0.0
21:36 13.0 12.1 94 1028.8 0.0 N 0.0 0.0 0.0
21:37 13.0 12.1 94 1028.6 0.0 N 0.0 0.0 0.0
21:38 13.0 12.1 94 1028.8 0.0 NW 0.0 0.0 0.0
21:39 12.9 12.0 94 1028.8 0.0 NW 0.0 0.0 0.0
21:40 12.9 12.0 94 1028.8 0.0 NW 0.0 0.0 0.0
21:41 13.0 12.1 94 1028.8 0.0 NW 0.0 0.0 0.0
21:42 13.0 12.1 94 1028.7 0.0 NW 0.0 0.0 0.0
21:43 13.0 12.1 94 1028.8 0.0 NW 0.0 0.0 0.0
21:44 13.0 12.1 94 1028.8 0.0 NW 0.0 0.0 0.0
21:46 12.9 12.0 94 1028.9 0.0 W 0.0 0.0 0.0
21:47 12.9 12.0 94 1028.9 0.0 NE 0.0 0.0 0.0
21:48 12.9 12.0 94 1028.9 0.0 N 0.0 0.0 0.0
21:49 12.9 12.0 94 1028.8 0.0 N 0.0 0.0 0.0
21:50 12.9 12.0 94 1028.9 0.0 SE 0.0 0.0 0.0
21:51 12.9 12.0 94 1028.8 0.0 N 0.0 0.0 0.0
21:52 12.9 12.0 94 1028.8 0.0 NE 0.0 0.0 0.0
21:53 12.9 12.0 94 1028.9 0.0 NE 0.0 0.0 0.0
21:54 12.9 12.0 94 1028.9 0.0 NE 0.0 0.0 0.0
21:55 12.9 12.0 94 1029.1 0.0 NE 0.0 0.0 0.0
21:56 12.9 12.0 94 1029.0 0.0 NE 0.0 0.0 0.0
21:57 12.9 12.0 94 1029.1 0.0 NE 0.0 0.0 0.0
21:58 12.9 12.0 94 1029.0 0.0 NE 0.0 0.0 0.0
21:59 12.9 12.0 94 1029.1 0.0 N 0.0 0.0 0.0
22:00 12.9 12.0 94 1029.0 0.0 N 0.0 0.0 0.0
22:01 12.9 12.0 94 1029.0 0.0 N 0.0 0.0 0.0
22:02 12.9 12.0 94 1029.0 0.0 N 0.0 0.0 0.0
22:03 12.9 12.0 94 1029.0 0.0 N 0.0 0.0 0.0
22:04 12.9 12.0 94 1029.0 0.0 N 0.0 0.0 0.0
22:05 12.9 12.0 94 1029.2 0.0 N 0.0 0.0 0.0
22:06 12.9 12.0 94 1029.0 0.0 N 0.0 0.0 0.0
22:07 12.9 12.0 94 1029.0 0.0 N 0.0 0.0 0.0
22:08 12.9 12.0 94 1028.9 0.0 N 0.0 0.0 0.0
22:09 12.9 12.0 94 1029.0 0.0 NE 0.0 0.0 0.0
22:10 12.9 12.0 94 1029.0 0.0 NE 0.0 0.0 0.0
22:11 12.9 12.0 94 1028.9 0.0 NE 0.0 0.0 0.0
22:12 12.9 12.0 94 1028.9 0.0 NE 0.0 0.0 0.0
22:14 12.9 12.0 94 1029.0 0.0 NE 0.0 0.0 0.0
22:15 12.9 12.0 94 1029.0 0.0 NE 0.0 0.0 0.0
22:16 12.9 12.0 94 1029.2 0.0 NE 0.0 0.0 0.0
22:17 12.9 12.0 94 1029.1 0.0 NE 0.0 0.0 0.0
22:18 12.8 11.9 94 1029.0 0.0 NE 0.0 0.0 0.0
22:19 12.8 11.9 94 1029.2 0.0 N 0.0 0.0 0.0
22:20 12.9 12.0 94 1029.1 0.0 N 0.0 0.0 0.0
22:21 12.8 11.9 94 1029.1 0.0 N 0.0 0.0 0.0
22:22 12.9 12.0 94 1029.1 0.0 NE 0.0 0.0 0.0
22:23 12.8 11.9 94 1029.2 0.0 N 0.0 0.0 0.0
22:24 12.9 12.0 94 1029.1 0.0 N 0.0 0.0 0.0
22:25 12.8 11.9 94 1029.1 0.0 N 0.0 0.0 0.0
22:26 12.9 12.0 94 1029.1 0.0 N 0.0 0.0 0.0
22:27 12.8 11.9 94 1029.0 0.0 N 0.0 0.0 0.0
22:28 12.8 11.9 94 1029.0 0.0 N 0.0 0.0 0.0
22:29 12.8 11.9 94 1028.9 0.0 N 0.0 0.0 0.0
22:30 12.8 11.9 94 1028.9 0.0 N 0.0 0.0 0.0
22:31 12.8 11.9 94 1029.0 0.0 N 0.0 0.0 0.0
22:32 12.9 12.0 94 1028.9 0.0 N 0.0 0.0 0.0
22:33 12.8 11.9 94 1028.9 0.0 N 0.0 0.0 0.0
22:34 12.8 11.9 94 1029.2 0.0 N 0.0 0.0 0.0
22:35 12.8 11.9 94 1029.1 0.0 N 0.0 0.0 0.0
22:36 12.8 11.9 94 1029.1 0.0 N 0.0 0.0 0.0
22:37 12.8 11.9 94 1029.1 0.0 N 0.0 0.0 0.0
22:38 12.8 11.9 94 1029.2 0.0 N 0.0 0.0 0.0
22:39 12.8 11.9 94 1029.0 0.0 N 0.0 0.0 0.0
22:40 12.8 11.9 94 1029.1 0.0 N 0.0 0.0 0.0
22:41 12.8 11.9 94 1029.0 0.0 N 0.0 0.0 0.0
22:43 12.8 11.9 94 1029.1 0.0 N 0.0 0.0 0.0
22:44 12.8 11.9 94 1029.1 0.0 N 0.0 0.0 0.0
22:45 12.8 11.9 94 1029.1 0.0 N 0.0 0.0 0.0
22:46 12.8 11.9 94 1029.1 0.0 N 0.0 0.0 0.0
22:47 12.8 11.9 94 1029.1 0.0 N 0.0 0.0 0.0
22:48 12.8 11.9 94 1029.2 0.0 N 0.0 0.0 0.0
22:49 12.8 11.9 94 1029.1 0.0 N 0.0 0.0 0.0
22:50 12.8 11.9 94 1029.1 0.0 N 0.0 0.0 0.0
22:51 12.8 11.9 94 1029.2 0.0 N 0.0 0.0 0.0
22:52 12.8 11.9 94 1029.3 0.0 N 0.0 0.0 0.0
22:53 12.8 11.9 94 1029.3 0.0 N 0.0 0.0 0.0
22:54 12.8 11.9 94 1029.4 0.0 N 0.0 0.0 0.0
22:55 12.8 11.9 94 1029.3 0.0 N 0.0 0.0 0.0
22:56 12.9 12.0 94 1029.4 0.0 N 0.0 0.0 0.0
22:57 12.8 11.9 94 1029.4 0.0 N 0.0 0.0 0.0
22:58 12.8 11.9 94 1029.3 0.0 N 0.0 0.0 0.0
22:59 12.9 12.0 94 1029.2 0.0 N 0.0 0.0 0.0
23:00 12.9 12.0 94 1029.2 0.0 N 0.0 0.0 0.0
23:01 12.8 11.9 94 1029.3 0.0 NE 0.0 0.0 0.0
23:02 12.8 11.9 94 1029.4 0.0 NE 0.0 0.0 0.0
23:03 12.8 11.9 94 1029.3 0.0 NE 0.0 0.0 0.0
23:04 12.8 11.9 94 1029.3 0.0 NE 0.0 0.0 0.0
23:05 12.8 11.9 94 1029.3 0.0 NE 0.0 0.0 0.0
23:06 12.9 12.0 94 1029.3 0.0 NE 0.0 0.0 0.0
23:07 12.9 12.0 94 1029.4 0.0 NE 0.0 0.0 0.0
23:08 12.9 12.0 94 1029.1 0.0 N 0.0 0.0 0.0
23:09 12.9 12.0 94 1029.1 0.0 N 0.0 0.0 0.0
23:10 12.9 12.0 94 1029.2 0.0 N 0.0 0.0 0.0
23:11 12.9 12.0 94 1029.2 0.0 NE 0.0 0.0 0.0
23:12 12.9 12.0 94 1029.2 0.0 N 0.0 0.0 0.0
23:13 12.9 12.0 94 1029.2 0.0 N 0.0 0.0 0.0
23:14 12.9 12.0 94 1029.0 0.0 N 0.0 0.0 0.0
23:15 12.8 11.9 94 1029.2 0.0 N 0.0 0.0 0.0
23:16 12.9 12.0 94 1029.3 0.0 N 0.0 0.0 0.0
23:17 12.9 12.0 94 1029.3 0.0 NE 0.0 0.0 0.0
23:18 12.8 11.9 94 1029.3 0.0 N 0.0 0.0 0.0
23:19 12.8 11.9 94 1029.3 0.0 N 0.0 0.0 0.0
23:20 12.8 11.9 94 1029.1 0.0 N 0.0 0.0 0.0
23:21 12.8 11.9 94 1029.1 0.0 NE 0.0 0.0 0.0
23:22 12.8 11.9 94 1029.1 0.0 NE 0.0 0.0 0.0
23:23 12.8 11.9 94 1029.0 0.0 N 0.0 0.0 0.0
23:24 12.8 11.9 94 1029.0 0.0 NE 0.0 0.0 0.0
23:25 12.8 11.9 94 1029.1 0.0 NE 0.0 0.0 0.0
23:26 12.8 11.9 94 1029.1 0.0 NE 0.0 0.0 0.0
23:27 12.8 11.9 94 1029.1 0.0 NE 0.0 0.0 0.0
23:29 12.7 11.8 94 1029.0 0.0 N 0.0 0.0 0.0
23:30 12.7 11.8 94 1029.0 0.0 N 0.0 0.0 0.0
23:31 12.7 11.8 94 1029.0 0.0 N 0.0 0.0 0.0
23:32 12.7 11.8 94 1029.1 0.0 N 0.0 0.0 0.0
23:33 12.6 11.5 93 1029.0 0.0 N 0.0 0.0 0.0
23:34 12.6 11.5 93 1029.1 0.0 N 0.0 0.0 0.0
23:35 12.6 11.5 93 1029.2 0.0 N 0.0 0.0 0.0
23:36 12.6 11.5 93 1029.2 0.0 N 0.0 0.0 0.0
23:37 12.5 11.4 93 1029.1 0.0 N 0.0 0.0 0.0
23:38 12.5 11.4 93 1029.3 0.0 N 0.0 0.0 0.0
23:39 12.5 11.4 93 1029.1 0.0 N 0.0 0.0 0.0
23:40 12.4 11.3 93 1029.1 0.0 N 0.0 0.0 0.0
23:41 12.4 11.3 93 1029.1 0.0 N 0.0 0.0 0.0
23:42 12.4 11.3 93 1029.1 0.0 N 0.0 0.0 0.0
23:43 12.3 11.2 93 1029.2 0.0 N 0.0 0.0 0.0
23:44 12.3 11.2 93 1029.1 0.0 N 0.0 0.0 0.0
23:45 12.3 11.2 93 1029.1 0.0 N 0.0 0.0 0.0
23:46 12.2 11.1 93 1029.3 0.0 N 0.0 0.0 0.0
23:47 12.2 11.1 93 1029.3 0.0 N 0.0 0.0 0.0
23:48 12.2 11.1 93 1029.3 0.0 N 0.0 0.0 0.0
23:49 12.2 11.1 93 1029.2 0.0 N 0.0 0.0 0.0
23:50 12.1 11.0 93 1029.2 0.0 N 0.0 0.0 0.0
23:51 12.1 11.0 93 1029.3 0.0 N 0.0 0.0 0.0
23:52 12.1 11.0 93 1029.1 0.0 N 0.0 0.0 0.0
23:53 12.0 10.9 93 1029.2 0.0 N 0.0 0.0 0.0
23:54 12.0 10.9 93 1029.1 0.0 N 0.0 0.0 0.0
23:55 12.0 10.9 93 1029.3 0.0 N 0.0 0.0 0.0
23:56 12.0 10.7 92 1029.2 0.0 N 0.0 0.0 0.0
23:57 11.9 10.8 93 1029.1 0.0 N 0.0 0.0 0.0
23:59 11.8 10.7 93 1029.1 0.0 N 0.0 0.0 0.0

UK - WEATHER STATION TOPSITES - UK World Weather Websites

This is a private weather station, never base important decisions or events on data from this weather station. Although every effort has been made to make the data as accurate as possible it does not meet MetOffice standards. It is proved as a guide of local weather conditions. We accept no liability for any loss which may arise from use of the data.

Copyright © Carnkie Weather 2009 - 2018.